<?xml version="1.0" encoding="UTF-8" standalone="no" ?>
<gpx xmlns="http://www.topografix.com/GPX/1/1" xmlns:xsi="http://www.w3.org/2001/XMLSchema-instance" xsi:schemaLocation="http://www.topografix.com/GPX/1/1 http://www.topografix.com/GPX/1/1/gpx.xsd" version="1.1" creator="VisuGPX - https://www.visugpx.com">
  <metadata>
    <name>Essai parcours rouge</name>
  </metadata>
  <trk>
    <name><![CDATA[Grande Rue / Rue du Moulin Brisse Loop]]></name>
    <trkseg>
      <trkpt lat="47.56542" lon="6.5834">
        <ele>335.55</ele>
        <time>2000-01-01T00:00:00Z</time>
      </trkpt>
      <trkpt lat="47.56542" lon="6.5834">
        <ele>335.55</ele>
        <time>2000-01-01T00:00:00Z</time>
      </trkpt>
      <trkpt lat="47.56559" lon="6.58325">
        <ele>334.3632513125</ele>
        <time>2000-01-01T00:00:00Z</time>
      </trkpt>
      <trkpt lat="47.56566" lon="6.58321">
        <ele>333.93</ele>
        <time>2000-01-01T00:00:00Z</time>
      </trkpt>
      <trkpt lat="47.56591" lon="6.58308">
        <ele>334.18</ele>
        <time>2000-01-01T00:00:00Z</time>
      </trkpt>
      <trkpt lat="47.56617" lon="6.58294">
        <ele>332.63</ele>
        <time>2000-01-01T00:00:00Z</time>
      </trkpt>
      <trkpt lat="47.56642" lon="6.5828">
        <ele>331.31</ele>
        <time>2000-01-01T00:00:00Z</time>
      </trkpt>
      <trkpt lat="47.56658" lon="6.58271">
        <ele>330.44156432581</ele>
        <time>2000-01-01T00:00:00Z</time>
      </trkpt>
      <trkpt lat="47.56666" lon="6.58262">
        <ele>329.95</ele>
        <time>2000-01-01T00:00:00Z</time>
      </trkpt>
      <trkpt lat="47.56668" lon="6.5826">
        <ele>329.79951309205</ele>
        <time>2000-01-01T00:00:00Z</time>
      </trkpt>
      <trkpt lat="47.56677" lon="6.58244">
        <ele>329.01369121354</ele>
        <time>2000-01-01T00:00:00Z</time>
      </trkpt>
      <trkpt lat="47.56681" lon="6.5823">
        <ele>328.44</ele>
        <time>2000-01-01T00:00:00Z</time>
      </trkpt>
      <trkpt lat="47.56684" lon="6.58222">
        <ele>328.03689792006</ele>
        <time>2000-01-01T00:00:00Z</time>
      </trkpt>
      <trkpt lat="47.56688" lon="6.58192">
        <ele>326.67</ele>
        <time>2000-01-01T00:00:00Z</time>
      </trkpt>
      <trkpt lat="47.56692" lon="6.58152">
        <ele>325.2</ele>
        <time>2000-01-01T00:00:00Z</time>
      </trkpt>
      <trkpt lat="47.56693" lon="6.58145">
        <ele>325.01813175035</ele>
        <time>2000-01-01T00:00:00Z</time>
      </trkpt>
      <trkpt lat="47.56698" lon="6.58113">
        <ele>324.19</ele>
        <time>2000-01-01T00:00:00Z</time>
      </trkpt>
      <trkpt lat="47.56699" lon="6.58107">
        <ele>324.01943351969</ele>
        <time>2000-01-01T00:00:00Z</time>
      </trkpt>
      <trkpt lat="47.56703" lon="6.58087">
        <ele>323.44617581625</ele>
        <time>2000-01-01T00:00:00Z</time>
      </trkpt>
      <trkpt lat="47.56708" lon="6.58076">
        <ele>323.09</ele>
        <time>2000-01-01T00:00:00Z</time>
      </trkpt>
      <trkpt lat="47.56709" lon="6.58074">
        <ele>323.00636875537</ele>
        <time>2000-01-01T00:00:00Z</time>
      </trkpt>
      <trkpt lat="47.56719" lon="6.5806">
        <ele>322.39516215743</ele>
        <time>2000-01-01T00:00:00Z</time>
      </trkpt>
      <trkpt lat="47.56729" lon="6.58051">
        <ele>321.89</ele>
        <time>2000-01-01T00:00:00Z</time>
      </trkpt>
      <trkpt lat="47.56752" lon="6.5803">
        <ele>320.67</ele>
        <time>2000-01-01T00:00:00Z</time>
      </trkpt>
      <trkpt lat="47.56764" lon="6.58019">
        <ele>319.9960502089</ele>
        <time>2000-01-01T00:00:00Z</time>
      </trkpt>
      <trkpt lat="47.56775" lon="6.58009">
        <ele>319.41</ele>
        <time>2000-01-01T00:00:00Z</time>
      </trkpt>
      <trkpt lat="47.56789" lon="6.57996">
        <ele>318.74191406646</ele>
        <time>2000-01-01T00:00:00Z</time>
      </trkpt>
      <trkpt lat="47.56792" lon="6.57999">
        <ele>318.59853543784</ele>
        <time>2000-01-01T00:00:00Z</time>
      </trkpt>
      <trkpt lat="47.56799" lon="6.58002">
        <ele>318.31266389239</ele>
        <time>2000-01-01T00:00:00Z</time>
      </trkpt>
      <trkpt lat="47.56823" lon="6.5799">
        <ele>317.40295953236</ele>
        <time>2000-01-01T00:00:00Z</time>
      </trkpt>
      <trkpt lat="47.56824" lon="6.5799">
        <ele>317.37</ele>
        <time>2000-01-01T00:00:00Z</time>
      </trkpt>
      <trkpt lat="47.5685" lon="6.57978">
        <ele>315.86</ele>
        <time>2000-01-01T00:00:00Z</time>
      </trkpt>
      <trkpt lat="47.5686" lon="6.57973">
        <ele>315.15944471482</ele>
        <time>2000-01-01T00:00:00Z</time>
      </trkpt>
      <trkpt lat="47.56876" lon="6.57968">
        <ele>314.11</ele>
        <time>2000-01-01T00:00:00Z</time>
      </trkpt>
      <trkpt lat="47.56902" lon="6.5796">
        <ele>312.56</ele>
        <time>2000-01-01T00:00:00Z</time>
      </trkpt>
      <trkpt lat="47.56929" lon="6.57952">
        <ele>310.8</ele>
        <time>2000-01-01T00:00:00Z</time>
      </trkpt>
      <trkpt lat="47.56942" lon="6.57948">
        <ele>309.739885404</ele>
        <time>2000-01-01T00:00:00Z</time>
      </trkpt>
      <trkpt lat="47.56948" lon="6.57946">
        <ele>309.25714528336</ele>
        <time>2000-01-01T00:00:00Z</time>
      </trkpt>
      <trkpt lat="47.56955" lon="6.57943">
        <ele>308.68</ele>
        <time>2000-01-01T00:00:00Z</time>
      </trkpt>
      <trkpt lat="47.56976" lon="6.57932">
        <ele>306.74852425315</ele>
        <time>2000-01-01T00:00:00Z</time>
      </trkpt>
      <trkpt lat="47.5698" lon="6.57928">
        <ele>306.33</ele>
        <time>2000-01-01T00:00:00Z</time>
      </trkpt>
      <trkpt lat="47.57004" lon="6.57908">
        <ele>304.59</ele>
        <time>2000-01-01T00:00:00Z</time>
      </trkpt>
      <trkpt lat="47.57027" lon="6.57888">
        <ele>303.84</ele>
        <time>2000-01-01T00:00:00Z</time>
      </trkpt>
      <trkpt lat="47.5704" lon="6.57877">
        <ele>303.97747136509</ele>
        <time>2000-01-01T00:00:00Z</time>
      </trkpt>
      <trkpt lat="47.5707" lon="6.57853">
        <ele>304.2867265511</ele>
        <time>2000-01-01T00:00:00Z</time>
      </trkpt>
      <trkpt lat="47.57074" lon="6.57856">
        <ele>304.33</ele>
        <time>2000-01-01T00:00:00Z</time>
      </trkpt>
      <trkpt lat="47.57099" lon="6.57871">
        <ele>305.97</ele>
        <time>2000-01-01T00:00:00Z</time>
      </trkpt>
      <trkpt lat="47.57124" lon="6.57887">
        <ele>308.9</ele>
        <time>2000-01-01T00:00:00Z</time>
      </trkpt>
      <trkpt lat="47.57149" lon="6.57903">
        <ele>312.28</ele>
        <time>2000-01-01T00:00:00Z</time>
      </trkpt>
      <trkpt lat="47.57162" lon="6.57911">
        <ele>313.34602563386</ele>
        <time>2000-01-01T00:00:00Z</time>
      </trkpt>
      <trkpt lat="47.57163" lon="6.57917">
        <ele>313.65943525934</ele>
        <time>2000-01-01T00:00:00Z</time>
      </trkpt>
      <trkpt lat="47.57168" lon="6.57928">
        <ele>314.31</ele>
        <time>2000-01-01T00:00:00Z</time>
      </trkpt>
      <trkpt lat="47.57171" lon="6.57934">
        <ele>314.49151043323</ele>
        <time>2000-01-01T00:00:00Z</time>
      </trkpt>
      <trkpt lat="47.57174" lon="6.57938">
        <ele>314.62896660756</ele>
        <time>2000-01-01T00:00:00Z</time>
      </trkpt>
      <trkpt lat="47.57189" lon="6.57952">
        <ele>315.23</ele>
        <time>2000-01-01T00:00:00Z</time>
      </trkpt>
      <trkpt lat="47.57193" lon="6.57955">
        <ele>315.28053307951</ele>
        <time>2000-01-01T00:00:00Z</time>
      </trkpt>
      <trkpt lat="47.57208" lon="6.57965">
        <ele>315.46322965287</ele>
        <time>2000-01-01T00:00:00Z</time>
      </trkpt>
      <trkpt lat="47.57223" lon="6.57981">
        <ele>315.66850794793</ele>
        <time>2000-01-01T00:00:00Z</time>
      </trkpt>
      <trkpt lat="47.57227" lon="6.57982">
        <ele>315.713567226</ele>
        <time>2000-01-01T00:00:00Z</time>
      </trkpt>
      <trkpt lat="47.57236" lon="6.5799">
        <ele>315.83</ele>
        <time>2000-01-01T00:00:00Z</time>
      </trkpt>
      <trkpt lat="47.5725" lon="6.58003">
        <ele>316.21868531634</ele>
        <time>2000-01-01T00:00:00Z</time>
      </trkpt>
      <trkpt lat="47.5726" lon="6.58016">
        <ele>316.53142047656</ele>
        <time>2000-01-01T00:00:00Z</time>
      </trkpt>
      <trkpt lat="47.57278" lon="6.5803">
        <ele>317.00935843974</ele>
        <time>2000-01-01T00:00:00Z</time>
      </trkpt>
      <trkpt lat="47.57281" lon="6.5803">
        <ele>317.07989378878</ele>
        <time>2000-01-01T00:00:00Z</time>
      </trkpt>
      <trkpt lat="47.57293" lon="6.58037">
        <ele>318.40626278617</ele>
        <time>2000-01-01T00:00:00Z</time>
      </trkpt>
      <trkpt lat="47.57308" lon="6.58042">
        <ele>320.03</ele>
        <time>2000-01-01T00:00:00Z</time>
      </trkpt>
      <trkpt lat="47.57319" lon="6.58046">
        <ele>321.65036207024</ele>
        <time>2000-01-01T00:00:00Z</time>
      </trkpt>
      <trkpt lat="47.57334" lon="6.58046">
        <ele>323.76</ele>
        <time>2000-01-01T00:00:00Z</time>
      </trkpt>
      <trkpt lat="47.57339" lon="6.58046">
        <ele>324.35830171686</ele>
        <time>2000-01-01T00:00:00Z</time>
      </trkpt>
      <trkpt lat="47.57351" lon="6.58046">
        <ele>325.87786640167</ele>
        <time>2000-01-01T00:00:00Z</time>
      </trkpt>
      <trkpt lat="47.57354" lon="6.58043">
        <ele>326.33612663572</ele>
        <time>2000-01-01T00:00:00Z</time>
      </trkpt>
      <trkpt lat="47.57358" lon="6.58043">
        <ele>326.84264819729</ele>
        <time>2000-01-01T00:00:00Z</time>
      </trkpt>
      <trkpt lat="47.5736" lon="6.58041">
        <ele>327.18</ele>
        <time>2000-01-01T00:00:00Z</time>
      </trkpt>
      <trkpt lat="47.57364" lon="6.58039">
        <ele>327.52643837982</ele>
        <time>2000-01-01T00:00:00Z</time>
      </trkpt>
      <trkpt lat="47.57374" lon="6.58034">
        <ele>328.46036009487</ele>
        <time>2000-01-01T00:00:00Z</time>
      </trkpt>
      <trkpt lat="47.57377" lon="6.58032">
        <ele>328.75145499838</ele>
        <time>2000-01-01T00:00:00Z</time>
      </trkpt>
      <trkpt lat="47.57386" lon="6.5803">
        <ele>329.57</ele>
        <time>2000-01-01T00:00:00Z</time>
      </trkpt>
      <trkpt lat="47.5739" lon="6.58029">
        <ele>329.67849098972</ele>
        <time>2000-01-01T00:00:00Z</time>
      </trkpt>
      <trkpt lat="47.57406" lon="6.58023">
        <ele>330.13680656231</ele>
        <time>2000-01-01T00:00:00Z</time>
      </trkpt>
      <trkpt lat="47.57413" lon="6.58023">
        <ele>330.32</ele>
        <time>2000-01-01T00:00:00Z</time>
      </trkpt>
      <trkpt lat="47.57435" lon="6.58023">
        <ele>330.21216388832</ele>
        <time>2000-01-01T00:00:00Z</time>
      </trkpt>
      <trkpt lat="47.57439" lon="6.58025">
        <ele>330.19</ele>
        <time>2000-01-01T00:00:00Z</time>
      </trkpt>
      <trkpt lat="47.5745" lon="6.5803">
        <ele>330.30941601754</ele>
        <time>2000-01-01T00:00:00Z</time>
      </trkpt>
      <trkpt lat="47.57464" lon="6.58041">
        <ele>330.48</ele>
        <time>2000-01-01T00:00:00Z</time>
      </trkpt>
      <trkpt lat="47.57467" lon="6.58044">
        <ele>330.68436786622</ele>
        <time>2000-01-01T00:00:00Z</time>
      </trkpt>
      <trkpt lat="47.5747" lon="6.5805">
        <ele>330.97352070236</ele>
        <time>2000-01-01T00:00:00Z</time>
      </trkpt>
      <trkpt lat="47.57484" lon="6.58066">
        <ele>331.98807758158</ele>
        <time>2000-01-01T00:00:00Z</time>
      </trkpt>
      <trkpt lat="47.575" lon="6.58098">
        <ele>333.44311193413</ele>
        <time>2000-01-01T00:00:00Z</time>
      </trkpt>
      <trkpt lat="47.57538" lon="6.58158">
        <ele>334.26367258536</ele>
        <time>2000-01-01T00:00:00Z</time>
      </trkpt>
      <trkpt lat="47.57543" lon="6.5816">
        <ele>334.37489000688</ele>
        <time>2000-01-01T00:00:00Z</time>
      </trkpt>
      <trkpt lat="47.5756" lon="6.5818">
        <ele>334.83</ele>
        <time>2000-01-01T00:00:00Z</time>
      </trkpt>
      <trkpt lat="47.57571" lon="6.58193">
        <ele>335.15119596685</ele>
        <time>2000-01-01T00:00:00Z</time>
      </trkpt>
      <trkpt lat="47.57601" lon="6.58214">
        <ele>335.88210511822</ele>
        <time>2000-01-01T00:00:00Z</time>
      </trkpt>
      <trkpt lat="47.57607" lon="6.58218">
        <ele>336.02</ele>
        <time>2000-01-01T00:00:00Z</time>
      </trkpt>
      <trkpt lat="47.57622" lon="6.58227">
        <ele>337.64493895414</ele>
        <time>2000-01-01T00:00:00Z</time>
      </trkpt>
      <trkpt lat="47.57633" lon="6.5823">
        <ele>338.77077209669</ele>
        <time>2000-01-01T00:00:00Z</time>
      </trkpt>
      <trkpt lat="47.57659" lon="6.5823">
        <ele>342.31</ele>
        <time>2000-01-01T00:00:00Z</time>
      </trkpt>
      <trkpt lat="47.57687" lon="6.5823">
        <ele>346.47117153347</ele>
        <time>2000-01-01T00:00:00Z</time>
      </trkpt>
      <trkpt lat="47.57708" lon="6.58223">
        <ele>350.09739004517</ele>
        <time>2000-01-01T00:00:00Z</time>
      </trkpt>
      <trkpt lat="47.57711" lon="6.58223">
        <ele>350.60280081391</ele>
        <time>2000-01-01T00:00:00Z</time>
      </trkpt>
      <trkpt lat="47.57713" lon="6.58222">
        <ele>350.91</ele>
        <time>2000-01-01T00:00:00Z</time>
      </trkpt>
      <trkpt lat="47.57726" lon="6.58216">
        <ele>352.98959705899</ele>
        <time>2000-01-01T00:00:00Z</time>
      </trkpt>
      <trkpt lat="47.57739" lon="6.58213">
        <ele>354.95</ele>
        <time>2000-01-01T00:00:00Z</time>
      </trkpt>
      <trkpt lat="47.57752" lon="6.5821">
        <ele>356.57848450121</ele>
        <time>2000-01-01T00:00:00Z</time>
      </trkpt>
      <trkpt lat="47.57764" lon="6.5821">
        <ele>358.05806064168</ele>
        <time>2000-01-01T00:00:00Z</time>
      </trkpt>
      <trkpt lat="47.57766" lon="6.5821">
        <ele>358.28</ele>
        <time>2000-01-01T00:00:00Z</time>
      </trkpt>
      <trkpt lat="47.57768" lon="6.58209">
        <ele>358.56323012152</ele>
        <time>2000-01-01T00:00:00Z</time>
      </trkpt>
      <trkpt lat="47.57793" lon="6.58209">
        <ele>361.67</ele>
        <time>2000-01-01T00:00:00Z</time>
      </trkpt>
      <trkpt lat="47.57813" lon="6.58209">
        <ele>364.42153866463</ele>
        <time>2000-01-01T00:00:00Z</time>
      </trkpt>
      <trkpt lat="47.5782" lon="6.58212">
        <ele>365.34</ele>
        <time>2000-01-01T00:00:00Z</time>
      </trkpt>
      <trkpt lat="47.5783" lon="6.58216">
        <ele>366.50069495437</ele>
        <time>2000-01-01T00:00:00Z</time>
      </trkpt>
      <trkpt lat="47.5784" lon="6.58217">
        <ele>367.56947967446</ele>
        <time>2000-01-01T00:00:00Z</time>
      </trkpt>
      <trkpt lat="47.57846" lon="6.5822">
        <ele>368.22</ele>
        <time>2000-01-01T00:00:00Z</time>
      </trkpt>
      <trkpt lat="47.57853" lon="6.58223">
        <ele>368.34187725904</ele>
        <time>2000-01-01T00:00:00Z</time>
      </trkpt>
      <trkpt lat="47.5786" lon="6.58228">
        <ele>368.46789148723</ele>
        <time>2000-01-01T00:00:00Z</time>
      </trkpt>
      <trkpt lat="47.57868" lon="6.58231">
        <ele>368.60171891804</ele>
        <time>2000-01-01T00:00:00Z</time>
      </trkpt>
      <trkpt lat="47.57886" lon="6.58241">
        <ele>368.91346160222</ele>
        <time>2000-01-01T00:00:00Z</time>
      </trkpt>
      <trkpt lat="47.57905" lon="6.58257">
        <ele>369.26784168679</ele>
        <time>2000-01-01T00:00:00Z</time>
      </trkpt>
      <trkpt lat="47.57909" lon="6.58262">
        <ele>369.35269570966</ele>
        <time>2000-01-01T00:00:00Z</time>
      </trkpt>
      <trkpt lat="47.5792" lon="6.58271">
        <ele>369.55645633774</ele>
        <time>2000-01-01T00:00:00Z</time>
      </trkpt>
      <trkpt lat="47.57927" lon="6.58279">
        <ele>369.69979884948</ele>
        <time>2000-01-01T00:00:00Z</time>
      </trkpt>
      <trkpt lat="47.57929" lon="6.58284">
        <ele>369.76339180363</ele>
        <time>2000-01-01T00:00:00Z</time>
      </trkpt>
      <trkpt lat="47.57937" lon="6.58291">
        <ele>369.91404698346</ele>
        <time>2000-01-01T00:00:00Z</time>
      </trkpt>
      <trkpt lat="47.57946" lon="6.58305">
        <ele>370.12561528193</ele>
        <time>2000-01-01T00:00:00Z</time>
      </trkpt>
      <trkpt lat="47.57956" lon="6.58326">
        <ele>370.41</ele>
        <time>2000-01-01T00:00:00Z</time>
      </trkpt>
      <trkpt lat="47.57959" lon="6.58332">
        <ele>370.7398293271</ele>
        <time>2000-01-01T00:00:00Z</time>
      </trkpt>
      <trkpt lat="47.5797" lon="6.58361">
        <ele>372.25</ele>
        <time>2000-01-01T00:00:00Z</time>
      </trkpt>
      <trkpt lat="47.57974" lon="6.58371">
        <ele>372.65875874532</ele>
        <time>2000-01-01T00:00:00Z</time>
      </trkpt>
      <trkpt lat="47.57978" lon="6.58376">
        <ele>372.92223098073</ele>
        <time>2000-01-01T00:00:00Z</time>
      </trkpt>
      <trkpt lat="47.57986" lon="6.58393">
        <ele>373.61</ele>
        <time>2000-01-01T00:00:00Z</time>
      </trkpt>
      <trkpt lat="47.5799" lon="6.58401">
        <ele>374.06874542275</ele>
        <time>2000-01-01T00:00:00Z</time>
      </trkpt>
      <trkpt lat="47.57992" lon="6.58408">
        <ele>374.40292077425</ele>
        <time>2000-01-01T00:00:00Z</time>
      </trkpt>
      <trkpt lat="47.58002" lon="6.58424">
        <ele>375.37</ele>
        <time>2000-01-01T00:00:00Z</time>
      </trkpt>
      <trkpt lat="47.58011" lon="6.58439">
        <ele>376.3484311025</ele>
        <time>2000-01-01T00:00:00Z</time>
      </trkpt>
      <trkpt lat="47.58022" lon="6.58452">
        <ele>377.34</ele>
        <time>2000-01-01T00:00:00Z</time>
      </trkpt>
      <trkpt lat="47.58025" lon="6.58456">
        <ele>377.55008562629</ele>
        <time>2000-01-01T00:00:00Z</time>
      </trkpt>
      <trkpt lat="47.58043" lon="6.58475">
        <ele>378.6</ele>
        <time>2000-01-01T00:00:00Z</time>
      </trkpt>
      <trkpt lat="47.58057" lon="6.5849">
        <ele>379.19324687187</ele>
        <time>2000-01-01T00:00:00Z</time>
      </trkpt>
      <trkpt lat="47.58062" lon="6.58498">
        <ele>379.4520203323</ele>
        <time>2000-01-01T00:00:00Z</time>
      </trkpt>
      <trkpt lat="47.58064" lon="6.585">
        <ele>379.55</ele>
        <time>2000-01-01T00:00:00Z</time>
      </trkpt>
      <trkpt lat="47.58087" lon="6.58521">
        <ele>380.72</ele>
        <time>2000-01-01T00:00:00Z</time>
      </trkpt>
      <trkpt lat="47.58093" lon="6.58526">
        <ele>380.85974831067</ele>
        <time>2000-01-01T00:00:00Z</time>
      </trkpt>
      <trkpt lat="47.58125" lon="6.58567">
        <ele>381.76804960658</ele>
        <time>2000-01-01T00:00:00Z</time>
      </trkpt>
      <trkpt lat="47.5813" lon="6.5857">
        <ele>381.88</ele>
        <time>2000-01-01T00:00:00Z</time>
      </trkpt>
      <trkpt lat="47.58135" lon="6.58574">
        <ele>382.2609471379</ele>
        <time>2000-01-01T00:00:00Z</time>
      </trkpt>
      <trkpt lat="47.58146" lon="6.5859">
        <ele>383.26519207131</ele>
        <time>2000-01-01T00:00:00Z</time>
      </trkpt>
      <trkpt lat="47.58151" lon="6.58594">
        <ele>383.64</ele>
        <time>2000-01-01T00:00:00Z</time>
      </trkpt>
      <trkpt lat="47.58154" lon="6.58597">
        <ele>383.89544778469</ele>
        <time>2000-01-01T00:00:00Z</time>
      </trkpt>
      <trkpt lat="47.58161" lon="6.58608">
        <ele>384.63195826487</ele>
        <time>2000-01-01T00:00:00Z</time>
      </trkpt>
      <trkpt lat="47.58163" lon="6.58608">
        <ele>384.77636134164</ele>
        <time>2000-01-01T00:00:00Z</time>
      </trkpt>
      <trkpt lat="47.58164" lon="6.58611">
        <ele>384.93933584605</ele>
        <time>2000-01-01T00:00:00Z</time>
      </trkpt>
      <trkpt lat="47.58167" lon="6.58612">
        <ele>385.16134826924</ele>
        <time>2000-01-01T00:00:00Z</time>
      </trkpt>
      <trkpt lat="47.58169" lon="6.58615">
        <ele>385.36677426277</ele>
        <time>2000-01-01T00:00:00Z</time>
      </trkpt>
      <trkpt lat="47.58169" lon="6.58619">
        <ele>385.5615850865</ele>
        <time>2000-01-01T00:00:00Z</time>
      </trkpt>
      <trkpt lat="47.58196" lon="6.58615">
        <ele>388.65</ele>
        <time>2000-01-01T00:00:00Z</time>
      </trkpt>
      <trkpt lat="47.58223" lon="6.58611">
        <ele>392.67</ele>
        <time>2000-01-01T00:00:00Z</time>
      </trkpt>
      <trkpt lat="47.5825" lon="6.58607">
        <ele>396.79</ele>
        <time>2000-01-01T00:00:00Z</time>
      </trkpt>
      <trkpt lat="47.58277" lon="6.58603">
        <ele>401.13</ele>
        <time>2000-01-01T00:00:00Z</time>
      </trkpt>
      <trkpt lat="47.58304" lon="6.58599">
        <ele>405.11</ele>
        <time>2000-01-01T00:00:00Z</time>
      </trkpt>
      <trkpt lat="47.58331" lon="6.58595">
        <ele>408.9</ele>
        <time>2000-01-01T00:00:00Z</time>
      </trkpt>
      <trkpt lat="47.5834" lon="6.58594">
        <ele>410.03337193285</ele>
        <time>2000-01-01T00:00:00Z</time>
      </trkpt>
      <trkpt lat="47.58357" lon="6.5859">
        <ele>412.16</ele>
        <time>2000-01-01T00:00:00Z</time>
      </trkpt>
      <trkpt lat="47.58384" lon="6.58583">
        <ele>415.52</ele>
        <time>2000-01-01T00:00:00Z</time>
      </trkpt>
      <trkpt lat="47.58399" lon="6.58579">
        <ele>417.77643188556</ele>
        <time>2000-01-01T00:00:00Z</time>
      </trkpt>
      <trkpt lat="47.58411" lon="6.58579">
        <ele>419.52</ele>
        <time>2000-01-01T00:00:00Z</time>
      </trkpt>
      <trkpt lat="47.58421" lon="6.58579">
        <ele>420.92115089132</ele>
        <time>2000-01-01T00:00:00Z</time>
      </trkpt>
      <trkpt lat="47.58429" lon="6.58577">
        <ele>422.03260603894</ele>
        <time>2000-01-01T00:00:00Z</time>
      </trkpt>
      <trkpt lat="47.58437" lon="6.58572">
        <ele>423.22161792287</ele>
        <time>2000-01-01T00:00:00Z</time>
      </trkpt>
      <trkpt lat="47.58459" lon="6.58567">
        <ele>425.69390914723</ele>
        <time>2000-01-01T00:00:00Z</time>
      </trkpt>
      <trkpt lat="47.58464" lon="6.58565">
        <ele>426.22</ele>
        <time>2000-01-01T00:00:00Z</time>
      </trkpt>
      <trkpt lat="47.58479" lon="6.58557">
        <ele>427.85658895918</ele>
        <time>2000-01-01T00:00:00Z</time>
      </trkpt>
      <trkpt lat="47.5849" lon="6.58555">
        <ele>428.92</ele>
        <time>2000-01-01T00:00:00Z</time>
      </trkpt>
      <trkpt lat="47.58508" lon="6.5855">
        <ele>430.41220444741</ele>
        <time>2000-01-01T00:00:00Z</time>
      </trkpt>
      <trkpt lat="47.58516" lon="6.58545">
        <ele>431.10891615075</ele>
        <time>2000-01-01T00:00:00Z</time>
      </trkpt>
      <trkpt lat="47.5854" lon="6.58537">
        <ele>433.39506722893</ele>
        <time>2000-01-01T00:00:00Z</time>
      </trkpt>
      <trkpt lat="47.58542" lon="6.58536">
        <ele>433.58</ele>
        <time>2000-01-01T00:00:00Z</time>
      </trkpt>
      <trkpt lat="47.58548" lon="6.58532">
        <ele>434.36297586023</ele>
        <time>2000-01-01T00:00:00Z</time>
      </trkpt>
      <trkpt lat="47.58558" lon="6.5853">
        <ele>435.54360885503</ele>
        <time>2000-01-01T00:00:00Z</time>
      </trkpt>
      <trkpt lat="47.58568" lon="6.5853">
        <ele>436.7136440412</ele>
        <time>2000-01-01T00:00:00Z</time>
      </trkpt>
      <trkpt lat="47.58595" lon="6.58523">
        <ele>440.06</ele>
        <time>2000-01-01T00:00:00Z</time>
      </trkpt>
      <trkpt lat="47.58621" lon="6.58516">
        <ele>442.3</ele>
        <time>2000-01-01T00:00:00Z</time>
      </trkpt>
      <trkpt lat="47.58625" lon="6.58515">
        <ele>442.46759050643</ele>
        <time>2000-01-01T00:00:00Z</time>
      </trkpt>
      <trkpt lat="47.58635" lon="6.5851">
        <ele>442.952123744</ele>
        <time>2000-01-01T00:00:00Z</time>
      </trkpt>
      <trkpt lat="47.58648" lon="6.58507">
        <ele>443.54</ele>
        <time>2000-01-01T00:00:00Z</time>
      </trkpt>
      <trkpt lat="47.58655" lon="6.58505">
        <ele>443.74212866369</ele>
        <time>2000-01-01T00:00:00Z</time>
      </trkpt>
      <trkpt lat="47.58674" lon="6.58496">
        <ele>444.27</ele>
        <time>2000-01-01T00:00:00Z</time>
      </trkpt>
      <trkpt lat="47.58699" lon="6.58484">
        <ele>444.79</ele>
        <time>2000-01-01T00:00:00Z</time>
      </trkpt>
      <trkpt lat="47.58707" lon="6.5848">
        <ele>444.81708623315</ele>
        <time>2000-01-01T00:00:00Z</time>
      </trkpt>
      <trkpt lat="47.58733" lon="6.5847">
        <ele>444.9065958491</ele>
        <time>2000-01-01T00:00:00Z</time>
      </trkpt>
      <trkpt lat="47.58744" lon="6.58467">
        <ele>444.94386700048</ele>
        <time>2000-01-01T00:00:00Z</time>
      </trkpt>
      <trkpt lat="47.58752" lon="6.58464">
        <ele>444.97</ele>
        <time>2000-01-01T00:00:00Z</time>
      </trkpt>
      <trkpt lat="47.58778" lon="6.58453">
        <ele>444.81</ele>
        <time>2000-01-01T00:00:00Z</time>
      </trkpt>
      <trkpt lat="47.58795" lon="6.58445">
        <ele>444.57668314609</ele>
        <time>2000-01-01T00:00:00Z</time>
      </trkpt>
      <trkpt lat="47.58805" lon="6.58445">
        <ele>444.44894196279</ele>
        <time>2000-01-01T00:00:00Z</time>
      </trkpt>
      <trkpt lat="47.58815" lon="6.5844">
        <ele>444.31413278542</ele>
        <time>2000-01-01T00:00:00Z</time>
      </trkpt>
      <trkpt lat="47.5883" lon="6.58435">
        <ele>444.12</ele>
        <time>2000-01-01T00:00:00Z</time>
      </trkpt>
      <trkpt lat="47.58845" lon="6.5843">
        <ele>443.37144106304</ele>
        <time>2000-01-01T00:00:00Z</time>
      </trkpt>
      <trkpt lat="47.58853" lon="6.58425">
        <ele>442.95355250168</ele>
        <time>2000-01-01T00:00:00Z</time>
      </trkpt>
      <trkpt lat="47.58856" lon="6.58424">
        <ele>442.82</ele>
        <time>2000-01-01T00:00:00Z</time>
      </trkpt>
      <trkpt lat="47.58882" lon="6.58415">
        <ele>440.56</ele>
        <time>2000-01-01T00:00:00Z</time>
      </trkpt>
      <trkpt lat="47.58897" lon="6.5841">
        <ele>439.13765250921</ele>
        <time>2000-01-01T00:00:00Z</time>
      </trkpt>
      <trkpt lat="47.58907" lon="6.58405">
        <ele>438.1607761656</ele>
        <time>2000-01-01T00:00:00Z</time>
      </trkpt>
      <trkpt lat="47.58908" lon="6.58405">
        <ele>438.06</ele>
        <time>2000-01-01T00:00:00Z</time>
      </trkpt>
      <trkpt lat="47.58919" lon="6.58403">
        <ele>437.29927477466</ele>
        <time>2000-01-01T00:00:00Z</time>
      </trkpt>
      <trkpt lat="47.58927" lon="6.58398">
        <ele>436.6981594341</ele>
        <time>2000-01-01T00:00:00Z</time>
      </trkpt>
      <trkpt lat="47.58934" lon="6.58395">
        <ele>436.19</ele>
        <time>2000-01-01T00:00:00Z</time>
      </trkpt>
      <trkpt lat="47.58949" lon="6.5839">
        <ele>435.45859783096</ele>
        <time>2000-01-01T00:00:00Z</time>
      </trkpt>
      <trkpt lat="47.58961" lon="6.58387">
        <ele>434.9</ele>
        <time>2000-01-01T00:00:00Z</time>
      </trkpt>
      <trkpt lat="47.58987" lon="6.58381">
        <ele>434.4</ele>
        <time>2000-01-01T00:00:00Z</time>
      </trkpt>
      <trkpt lat="47.59016" lon="6.58375">
        <ele>434.57213905726</ele>
        <time>2000-01-01T00:00:00Z</time>
      </trkpt>
      <trkpt lat="47.59023" lon="6.58373">
        <ele>434.61437154453</ele>
        <time>2000-01-01T00:00:00Z</time>
      </trkpt>
      <trkpt lat="47.59029" lon="6.58368">
        <ele>434.65514613328</ele>
        <time>2000-01-01T00:00:00Z</time>
      </trkpt>
      <trkpt lat="47.5904" lon="6.58364">
        <ele>434.72</ele>
        <time>2000-01-01T00:00:00Z</time>
      </trkpt>
      <trkpt lat="47.59066" lon="6.58356">
        <ele>435.86</ele>
        <time>2000-01-01T00:00:00Z</time>
      </trkpt>
      <trkpt lat="47.5908" lon="6.58351">
        <ele>436.59689520671</ele>
        <time>2000-01-01T00:00:00Z</time>
      </trkpt>
      <trkpt lat="47.59092" lon="6.58345">
        <ele>437.25</ele>
        <time>2000-01-01T00:00:00Z</time>
      </trkpt>
      <trkpt lat="47.591" lon="6.58341">
        <ele>437.64889746565</ele>
        <time>2000-01-01T00:00:00Z</time>
      </trkpt>
      <trkpt lat="47.59118" lon="6.58335">
        <ele>438.53</ele>
        <time>2000-01-01T00:00:00Z</time>
      </trkpt>
      <trkpt lat="47.59128" lon="6.58331">
        <ele>438.83998293043</ele>
        <time>2000-01-01T00:00:00Z</time>
      </trkpt>
      <trkpt lat="47.59135" lon="6.58326">
        <ele>439.07588915361</ele>
        <time>2000-01-01T00:00:00Z</time>
      </trkpt>
      <trkpt lat="47.59143" lon="6.58326">
        <ele>439.31878253402</ele>
        <time>2000-01-01T00:00:00Z</time>
      </trkpt>
      <trkpt lat="47.59144" lon="6.58326">
        <ele>439.35</ele>
        <time>2000-01-01T00:00:00Z</time>
      </trkpt>
      <trkpt lat="47.5917" lon="6.58315">
        <ele>440.18</ele>
        <time>2000-01-01T00:00:00Z</time>
      </trkpt>
      <trkpt lat="47.59174" lon="6.58313">
        <ele>440.34405711563</ele>
        <time>2000-01-01T00:00:00Z</time>
      </trkpt>
      <trkpt lat="47.59182" lon="6.58313">
        <ele>440.65804124152</ele>
        <time>2000-01-01T00:00:00Z</time>
      </trkpt>
      <trkpt lat="47.59194" lon="6.58303">
        <ele>441.19830052812</ele>
        <time>2000-01-01T00:00:00Z</time>
      </trkpt>
      <trkpt lat="47.59195" lon="6.58303">
        <ele>441.24</ele>
        <time>2000-01-01T00:00:00Z</time>
      </trkpt>
      <trkpt lat="47.59209" lon="6.58301">
        <ele>441.89823871126</ele>
        <time>2000-01-01T00:00:00Z</time>
      </trkpt>
      <trkpt lat="47.59221" lon="6.58292">
        <ele>442.51</ele>
        <time>2000-01-01T00:00:00Z</time>
      </trkpt>
      <trkpt lat="47.59222" lon="6.58291">
        <ele>442.60931483497</ele>
        <time>2000-01-01T00:00:00Z</time>
      </trkpt>
      <trkpt lat="47.59242" lon="6.58286">
        <ele>443.84092204631</ele>
        <time>2000-01-01T00:00:00Z</time>
      </trkpt>
      <trkpt lat="47.59247" lon="6.58283">
        <ele>444.15</ele>
        <time>2000-01-01T00:00:00Z</time>
      </trkpt>
      <trkpt lat="47.59252" lon="6.58279">
        <ele>444.47485098271</ele>
        <time>2000-01-01T00:00:00Z</time>
      </trkpt>
      <trkpt lat="47.59269" lon="6.58276">
        <ele>445.40667119682</ele>
        <time>2000-01-01T00:00:00Z</time>
      </trkpt>
      <trkpt lat="47.59273" lon="6.58274">
        <ele>445.62</ele>
        <time>2000-01-01T00:00:00Z</time>
      </trkpt>
      <trkpt lat="47.59291" lon="6.58264">
        <ele>446.94999686363</ele>
        <time>2000-01-01T00:00:00Z</time>
      </trkpt>
      <trkpt lat="47.59298" lon="6.58259">
        <ele>447.46</ele>
        <time>2000-01-01T00:00:00Z</time>
      </trkpt>
      <trkpt lat="47.59304" lon="6.58254">
        <ele>447.84436920306</ele>
        <time>2000-01-01T00:00:00Z</time>
      </trkpt>
      <trkpt lat="47.59311" lon="6.58251">
        <ele>448.23556974063</ele>
        <time>2000-01-01T00:00:00Z</time>
      </trkpt>
      <trkpt lat="47.59322" lon="6.58243">
        <ele>448.91</ele>
        <time>2000-01-01T00:00:00Z</time>
      </trkpt>
      <trkpt lat="47.59341" lon="6.58229">
        <ele>448.79388718712</ele>
        <time>2000-01-01T00:00:00Z</time>
      </trkpt>
      <trkpt lat="47.59346" lon="6.58224">
        <ele>448.76</ele>
        <time>2000-01-01T00:00:00Z</time>
      </trkpt>
      <trkpt lat="47.59355" lon="6.58216">
        <ele>448.29329532598</ele>
        <time>2000-01-01T00:00:00Z</time>
      </trkpt>
      <trkpt lat="47.5936" lon="6.58209">
        <ele>447.98521867314</ele>
        <time>2000-01-01T00:00:00Z</time>
      </trkpt>
      <trkpt lat="47.59366" lon="6.58204">
        <ele>447.67686561201</ele>
        <time>2000-01-01T00:00:00Z</time>
      </trkpt>
      <trkpt lat="47.59368" lon="6.58201">
        <ele>447.55</ele>
        <time>2000-01-01T00:00:00Z</time>
      </trkpt>
      <trkpt lat="47.59375" lon="6.58191">
        <ele>447.1788279549</ele>
        <time>2000-01-01T00:00:00Z</time>
      </trkpt>
      <trkpt lat="47.59381" lon="6.58189">
        <ele>446.94429436802</ele>
        <time>2000-01-01T00:00:00Z</time>
      </trkpt>
      <trkpt lat="47.59391" lon="6.5818">
        <ele>446.52</ele>
        <time>2000-01-01T00:00:00Z</time>
      </trkpt>
      <trkpt lat="47.59405" lon="6.58167">
        <ele>445.58980564222</ele>
        <time>2000-01-01T00:00:00Z</time>
      </trkpt>
      <trkpt lat="47.59408" lon="6.58162">
        <ele>445.34415314141</ele>
        <time>2000-01-01T00:00:00Z</time>
      </trkpt>
      <trkpt lat="47.59413" lon="6.58158">
        <ele>445.05</ele>
        <time>2000-01-01T00:00:00Z</time>
      </trkpt>
      <trkpt lat="47.5942" lon="6.58152">
        <ele>444.40300055768</ele>
        <time>2000-01-01T00:00:00Z</time>
      </trkpt>
      <trkpt lat="47.59437" lon="6.58141">
        <ele>442.96</ele>
        <time>2000-01-01T00:00:00Z</time>
      </trkpt>
      <trkpt lat="47.59452" lon="6.58132">
        <ele>440.92387457517</ele>
        <time>2000-01-01T00:00:00Z</time>
      </trkpt>
      <trkpt lat="47.59461" lon="6.58123">
        <ele>439.54</ele>
        <time>2000-01-01T00:00:00Z</time>
      </trkpt>
      <trkpt lat="47.59465" lon="6.58119">
        <ele>438.68851384027</ele>
        <time>2000-01-01T00:00:00Z</time>
      </trkpt>
      <trkpt lat="47.59486" lon="6.5811">
        <ele>434.7</ele>
        <time>2000-01-01T00:00:00Z</time>
      </trkpt>
      <trkpt lat="47.59489" lon="6.58109">
        <ele>434.36843236073</ele>
        <time>2000-01-01T00:00:00Z</time>
      </trkpt>
      <trkpt lat="47.59496" lon="6.58104">
        <ele>433.40468165345</ele>
        <time>2000-01-01T00:00:00Z</time>
      </trkpt>
      <trkpt lat="47.59504" lon="6.58102">
        <ele>432.39836986865</ele>
        <time>2000-01-01T00:00:00Z</time>
      </trkpt>
      <trkpt lat="47.59512" lon="6.58097">
        <ele>431.35</ele>
        <time>2000-01-01T00:00:00Z</time>
      </trkpt>
      <trkpt lat="47.59531" lon="6.58085">
        <ele>431.14898050707</ele>
        <time>2000-01-01T00:00:00Z</time>
      </trkpt>
      <trkpt lat="47.59537" lon="6.58082">
        <ele>431.09</ele>
        <time>2000-01-01T00:00:00Z</time>
      </trkpt>
      <trkpt lat="47.59542" lon="6.5808">
        <ele>431.51219278599</ele>
        <time>2000-01-01T00:00:00Z</time>
      </trkpt>
      <trkpt lat="47.59549" lon="6.58072">
        <ele>432.20591659536</ele>
        <time>2000-01-01T00:00:00Z</time>
      </trkpt>
      <trkpt lat="47.59554" lon="6.58072">
        <ele>432.59839675274</ele>
        <time>2000-01-01T00:00:00Z</time>
      </trkpt>
      <trkpt lat="47.59559" lon="6.5807">
        <ele>433.00490498082</ele>
        <time>2000-01-01T00:00:00Z</time>
      </trkpt>
      <trkpt lat="47.59561" lon="6.58068">
        <ele>433.21</ele>
        <time>2000-01-01T00:00:00Z</time>
      </trkpt>
      <trkpt lat="47.59569" lon="6.5806">
        <ele>434.65486178292</ele>
        <time>2000-01-01T00:00:00Z</time>
      </trkpt>
      <trkpt lat="47.59585" lon="6.58048">
        <ele>437.34</ele>
        <time>2000-01-01T00:00:00Z</time>
      </trkpt>
      <trkpt lat="47.59586" lon="6.58047">
        <ele>437.61521123823</ele>
        <time>2000-01-01T00:00:00Z</time>
      </trkpt>
      <trkpt lat="47.59596" lon="6.58035">
        <ele>439.87292610863</ele>
        <time>2000-01-01T00:00:00Z</time>
      </trkpt>
      <trkpt lat="47.59606" lon="6.58025">
        <ele>442.08</ele>
        <time>2000-01-01T00:00:00Z</time>
      </trkpt>
      <trkpt lat="47.59611" lon="6.5802">
        <ele>442.92356744384</ele>
        <time>2000-01-01T00:00:00Z</time>
      </trkpt>
      <trkpt lat="47.5963" lon="6.58004">
        <ele>446.21</ele>
        <time>2000-01-01T00:00:00Z</time>
      </trkpt>
      <trkpt lat="47.59635" lon="6.58">
        <ele>446.76674015711</ele>
        <time>2000-01-01T00:00:00Z</time>
      </trkpt>
      <trkpt lat="47.59641" lon="6.57988">
        <ele>447.69551177865</ele>
        <time>2000-01-01T00:00:00Z</time>
      </trkpt>
      <trkpt lat="47.5965" lon="6.57979">
        <ele>448.7</ele>
        <time>2000-01-01T00:00:00Z</time>
      </trkpt>
      <trkpt lat="47.59653" lon="6.57975">
        <ele>448.79324599348</ele>
        <time>2000-01-01T00:00:00Z</time>
      </trkpt>
      <trkpt lat="47.59656" lon="6.57968">
        <ele>448.9247490677</ele>
        <time>2000-01-01T00:00:00Z</time>
      </trkpt>
      <trkpt lat="47.59668" lon="6.57953">
        <ele>449.29375453882</ele>
        <time>2000-01-01T00:00:00Z</time>
      </trkpt>
      <trkpt lat="47.59668" lon="6.57948">
        <ele>449.37302982611</ele>
        <time>2000-01-01T00:00:00Z</time>
      </trkpt>
      <trkpt lat="47.59684" lon="6.57919">
        <ele>449.97</ele>
        <time>2000-01-01T00:00:00Z</time>
      </trkpt>
      <trkpt lat="47.59685" lon="6.57918">
        <ele>450.00600445955</ele>
        <time>2000-01-01T00:00:00Z</time>
      </trkpt>
      <trkpt lat="47.59685" lon="6.57908">
        <ele>450.24070848457</ele>
        <time>2000-01-01T00:00:00Z</time>
      </trkpt>
      <trkpt lat="47.59688" lon="6.57901">
        <ele>450.43537360471</ele>
        <time>2000-01-01T00:00:00Z</time>
      </trkpt>
      <trkpt lat="47.59692" lon="6.57881">
        <ele>450.91</ele>
        <time>2000-01-01T00:00:00Z</time>
      </trkpt>
      <trkpt lat="47.59693" lon="6.57873">
        <ele>450.85760969894</ele>
        <time>2000-01-01T00:00:00Z</time>
      </trkpt>
      <trkpt lat="47.59697" lon="6.57866">
        <ele>450.80262764557</ele>
        <time>2000-01-01T00:00:00Z</time>
      </trkpt>
      <trkpt lat="47.59701" lon="6.57845">
        <ele>450.67</ele>
        <time>2000-01-01T00:00:00Z</time>
      </trkpt>
      <trkpt lat="47.59703" lon="6.57831">
        <ele>450.09053318826</ele>
        <time>2000-01-01T00:00:00Z</time>
      </trkpt>
      <trkpt lat="47.5971" lon="6.57816">
        <ele>449.33446429888</ele>
        <time>2000-01-01T00:00:00Z</time>
      </trkpt>
      <trkpt lat="47.59711" lon="6.57808">
        <ele>449.01</ele>
        <time>2000-01-01T00:00:00Z</time>
      </trkpt>
      <trkpt lat="47.59713" lon="6.57786">
        <ele>447.43700886196</ele>
        <time>2000-01-01T00:00:00Z</time>
      </trkpt>
      <trkpt lat="47.59717" lon="6.57781">
        <ele>446.89464089774</ele>
        <time>2000-01-01T00:00:00Z</time>
      </trkpt>
      <trkpt lat="47.59717" lon="6.57771">
        <ele>446.20426241039</ele>
        <time>2000-01-01T00:00:00Z</time>
      </trkpt>
      <trkpt lat="47.59725" lon="6.57754">
        <ele>445.62972718092</ele>
        <time>2000-01-01T00:00:00Z</time>
      </trkpt>
      <trkpt lat="47.59727" lon="6.57734">
        <ele>445.06936890236</ele>
        <time>2000-01-01T00:00:00Z</time>
      </trkpt>
      <trkpt lat="47.59737" lon="6.57694">
        <ele>443.88704413877</ele>
        <time>2000-01-01T00:00:00Z</time>
      </trkpt>
      <trkpt lat="47.59739" lon="6.57672">
        <ele>443.27180345534</ele>
        <time>2000-01-01T00:00:00Z</time>
      </trkpt>
      <trkpt lat="47.59745" lon="6.57683">
        <ele>442.88</ele>
        <time>2000-01-01T00:00:00Z</time>
      </trkpt>
      <trkpt lat="47.59762" lon="6.57714">
        <ele>439.56</ele>
        <time>2000-01-01T00:00:00Z</time>
      </trkpt>
      <trkpt lat="47.59779" lon="6.57745">
        <ele>436.52</ele>
        <time>2000-01-01T00:00:00Z</time>
      </trkpt>
      <trkpt lat="47.59785" lon="6.57755">
        <ele>435.4359904629</ele>
        <time>2000-01-01T00:00:00Z</time>
      </trkpt>
      <trkpt lat="47.59794" lon="6.57778">
        <ele>433.23</ele>
        <time>2000-01-01T00:00:00Z</time>
      </trkpt>
      <trkpt lat="47.59796" lon="6.57784">
        <ele>432.82136573623</ele>
        <time>2000-01-01T00:00:00Z</time>
      </trkpt>
      <trkpt lat="47.59803" lon="6.57806">
        <ele>431.27256415803</ele>
        <time>2000-01-01T00:00:00Z</time>
      </trkpt>
      <trkpt lat="47.59803" lon="6.57815">
        <ele>430.68</ele>
        <time>2000-01-01T00:00:00Z</time>
      </trkpt>
      <trkpt lat="47.59803" lon="6.5784">
        <ele>429.82918555577</ele>
        <time>2000-01-01T00:00:00Z</time>
      </trkpt>
      <trkpt lat="47.59798" lon="6.57853">
        <ele>429.3</ele>
        <time>2000-01-01T00:00:00Z</time>
      </trkpt>
      <trkpt lat="47.59786" lon="6.5788">
        <ele>428.76198408226</ele>
        <time>2000-01-01T00:00:00Z</time>
      </trkpt>
      <trkpt lat="47.59782" lon="6.57898">
        <ele>428.44257432663</ele>
        <time>2000-01-01T00:00:00Z</time>
      </trkpt>
      <trkpt lat="47.5978" lon="6.5792">
        <ele>428.06844449841</ele>
        <time>2000-01-01T00:00:00Z</time>
      </trkpt>
      <trkpt lat="47.5978" lon="6.57927">
        <ele>427.95</ele>
        <time>2000-01-01T00:00:00Z</time>
      </trkpt>
      <trkpt lat="47.5978" lon="6.57967">
        <ele>425.27529169373</ele>
        <time>2000-01-01T00:00:00Z</time>
      </trkpt>
      <trkpt lat="47.59785" lon="6.57996">
        <ele>424.6587788413</ele>
        <time>2000-01-01T00:00:00Z</time>
      </trkpt>
      <trkpt lat="47.59802" lon="6.58039">
        <ele>423.63</ele>
        <time>2000-01-01T00:00:00Z</time>
      </trkpt>
      <trkpt lat="47.59803" lon="6.58041">
        <ele>423.64888933282</ele>
        <time>2000-01-01T00:00:00Z</time>
      </trkpt>
      <trkpt lat="47.59813" lon="6.58079">
        <ele>424.02063093272</ele>
        <time>2000-01-01T00:00:00Z</time>
      </trkpt>
      <trkpt lat="47.5982" lon="6.58116">
        <ele>424.42534747415</ele>
        <time>2000-01-01T00:00:00Z</time>
      </trkpt>
      <trkpt lat="47.59825" lon="6.5815">
        <ele>426.33683890599</ele>
        <time>2000-01-01T00:00:00Z</time>
      </trkpt>
      <trkpt lat="47.59825" lon="6.58154">
        <ele>426.56</ele>
        <time>2000-01-01T00:00:00Z</time>
      </trkpt>
      <trkpt lat="47.59827" lon="6.58173">
        <ele>427.35278025984</ele>
        <time>2000-01-01T00:00:00Z</time>
      </trkpt>
      <trkpt lat="47.59828" lon="6.58194">
        <ele>428.22</ele>
        <time>2000-01-01T00:00:00Z</time>
      </trkpt>
      <trkpt lat="47.59828" lon="6.58208">
        <ele>428.88924972319</ele>
        <time>2000-01-01T00:00:00Z</time>
      </trkpt>
      <trkpt lat="47.5983" lon="6.58234">
        <ele>430.12</ele>
        <time>2000-01-01T00:00:00Z</time>
      </trkpt>
      <trkpt lat="47.59834" lon="6.58271">
        <ele>430.60922637318</ele>
        <time>2000-01-01T00:00:00Z</time>
      </trkpt>
      <trkpt lat="47.59835" lon="6.58273">
        <ele>430.64</ele>
        <time>2000-01-01T00:00:00Z</time>
      </trkpt>
      <trkpt lat="47.59842" lon="6.58309">
        <ele>429.60241649165</ele>
        <time>2000-01-01T00:00:00Z</time>
      </trkpt>
      <trkpt lat="47.59843" lon="6.58311">
        <ele>429.53</ele>
        <time>2000-01-01T00:00:00Z</time>
      </trkpt>
      <trkpt lat="47.59853" lon="6.58342">
        <ele>429.46596008236</ele>
        <time>2000-01-01T00:00:00Z</time>
      </trkpt>
      <trkpt lat="47.59864" lon="6.58385">
        <ele>429.38085443434</ele>
        <time>2000-01-01T00:00:00Z</time>
      </trkpt>
      <trkpt lat="47.59871" lon="6.58423">
        <ele>429.78</ele>
        <time>2000-01-01T00:00:00Z</time>
      </trkpt>
      <trkpt lat="47.59873" lon="6.58432">
        <ele>429.96205088962</ele>
        <time>2000-01-01T00:00:00Z</time>
      </trkpt>
      <trkpt lat="47.59873" lon="6.58463">
        <ele>430.6</ele>
        <time>2000-01-01T00:00:00Z</time>
      </trkpt>
      <trkpt lat="47.59873" lon="6.58484">
        <ele>430.93301076531</ele>
        <time>2000-01-01T00:00:00Z</time>
      </trkpt>
      <trkpt lat="47.59866" lon="6.585">
        <ele>431.24</ele>
        <time>2000-01-01T00:00:00Z</time>
      </trkpt>
      <trkpt lat="47.59855" lon="6.58525">
        <ele>430.34607782901</ele>
        <time>2000-01-01T00:00:00Z</time>
      </trkpt>
      <trkpt lat="47.59844" lon="6.58541">
        <ele>429.65862250163</ele>
        <time>2000-01-01T00:00:00Z</time>
      </trkpt>
      <trkpt lat="47.59834" lon="6.58551">
        <ele>429.12049231868</ele>
        <time>2000-01-01T00:00:00Z</time>
      </trkpt>
      <trkpt lat="47.59829" lon="6.58557">
        <ele>428.83</ele>
        <time>2000-01-01T00:00:00Z</time>
      </trkpt>
      <trkpt lat="47.59823" lon="6.58565">
        <ele>426.99105898378</ele>
        <time>2000-01-01T00:00:00Z</time>
      </trkpt>
      <trkpt lat="47.5982" lon="6.58571">
        <ele>425.83105320895</ele>
        <time>2000-01-01T00:00:00Z</time>
      </trkpt>
      <trkpt lat="47.59809" lon="6.58585">
        <ele>422.44452290261</ele>
        <time>2000-01-01T00:00:00Z</time>
      </trkpt>
      <trkpt lat="47.59786" lon="6.58604">
        <ele>413.84</ele>
        <time>2000-01-01T00:00:00Z</time>
      </trkpt>
      <trkpt lat="47.59785" lon="6.58605">
        <ele>413.44771464311</ele>
        <time>2000-01-01T00:00:00Z</time>
      </trkpt>
      <trkpt lat="47.5978" lon="6.58608">
        <ele>411.39668112677</ele>
        <time>2000-01-01T00:00:00Z</time>
      </trkpt>
      <trkpt lat="47.5977" lon="6.58617">
        <ele>406.94855604782</ele>
        <time>2000-01-01T00:00:00Z</time>
      </trkpt>
      <trkpt lat="47.59762" lon="6.58623">
        <ele>403.57</ele>
        <time>2000-01-01T00:00:00Z</time>
      </trkpt>
      <trkpt lat="47.5975" lon="6.58631">
        <ele>398.80806988931</ele>
        <time>2000-01-01T00:00:00Z</time>
      </trkpt>
      <trkpt lat="47.59737" lon="6.58639">
        <ele>393.85</ele>
        <time>2000-01-01T00:00:00Z</time>
      </trkpt>
      <trkpt lat="47.59712" lon="6.58654">
        <ele>385.18</ele>
        <time>2000-01-01T00:00:00Z</time>
      </trkpt>
      <trkpt lat="47.59687" lon="6.58669">
        <ele>377.39</ele>
        <time>2000-01-01T00:00:00Z</time>
      </trkpt>
      <trkpt lat="47.59681" lon="6.58673">
        <ele>375.41758814921</ele>
        <time>2000-01-01T00:00:00Z</time>
      </trkpt>
      <trkpt lat="47.59661" lon="6.58681">
        <ele>369.40638693812</ele>
        <time>2000-01-01T00:00:00Z</time>
      </trkpt>
      <trkpt lat="47.59648" lon="6.58688">
        <ele>365.44790297218</ele>
        <time>2000-01-01T00:00:00Z</time>
      </trkpt>
      <trkpt lat="47.59636" lon="6.58693">
        <ele>361.82</ele>
        <time>2000-01-01T00:00:00Z</time>
      </trkpt>
      <trkpt lat="47.59633" lon="6.58694">
        <ele>361.15376832357</ele>
        <time>2000-01-01T00:00:00Z</time>
      </trkpt>
      <trkpt lat="47.59609" lon="6.58694">
        <ele>355.53</ele>
        <time>2000-01-01T00:00:00Z</time>
      </trkpt>
      <trkpt lat="47.59605" lon="6.58694">
        <ele>354.93653762909</ele>
        <time>2000-01-01T00:00:00Z</time>
      </trkpt>
      <trkpt lat="47.59596" lon="6.587">
        <ele>353.41661934894</ele>
        <time>2000-01-01T00:00:00Z</time>
      </trkpt>
      <trkpt lat="47.59588" lon="6.58716">
        <ele>351.37</ele>
        <time>2000-01-01T00:00:00Z</time>
      </trkpt>
      <trkpt lat="47.59587" lon="6.58717">
        <ele>351.26082164223</ele>
        <time>2000-01-01T00:00:00Z</time>
      </trkpt>
      <trkpt lat="47.59581" lon="6.58754">
        <ele>349.08</ele>
        <time>2000-01-01T00:00:00Z</time>
      </trkpt>
      <trkpt lat="47.59574" lon="6.58791">
        <ele>349.01300642958</ele>
        <time>2000-01-01T00:00:00Z</time>
      </trkpt>
      <trkpt lat="47.59568" lon="6.58813">
        <ele>348.97152848588</ele>
        <time>2000-01-01T00:00:00Z</time>
      </trkpt>
      <trkpt lat="47.59561" lon="6.58828">
        <ele>348.94</ele>
        <time>2000-01-01T00:00:00Z</time>
      </trkpt>
      <trkpt lat="47.59558" lon="6.58834">
        <ele>349.07979221753</ele>
        <time>2000-01-01T00:00:00Z</time>
      </trkpt>
      <trkpt lat="47.59549" lon="6.58844">
        <ele>349.38376800151</ele>
        <time>2000-01-01T00:00:00Z</time>
      </trkpt>
      <trkpt lat="47.59539" lon="6.58849">
        <ele>349.67</ele>
        <time>2000-01-01T00:00:00Z</time>
      </trkpt>
      <trkpt lat="47.59534" lon="6.58852">
        <ele>349.82652060985</ele>
        <time>2000-01-01T00:00:00Z</time>
      </trkpt>
      <trkpt lat="47.59512" lon="6.58852">
        <ele>350.46</ele>
        <time>2000-01-01T00:00:00Z</time>
      </trkpt>
      <trkpt lat="47.59496" lon="6.58852">
        <ele>351.14985012888</ele>
        <time>2000-01-01T00:00:00Z</time>
      </trkpt>
      <trkpt lat="47.59486" lon="6.58859">
        <ele>351.6</ele>
        <time>2000-01-01T00:00:00Z</time>
      </trkpt>
      <trkpt lat="47.59484" lon="6.5886">
        <ele>351.70705259125</ele>
        <time>2000-01-01T00:00:00Z</time>
      </trkpt>
      <trkpt lat="47.59476" lon="6.58867">
        <ele>352.10601758336</ele>
        <time>2000-01-01T00:00:00Z</time>
      </trkpt>
      <trkpt lat="47.59469" lon="6.58882">
        <ele>352.63437085607</ele>
        <time>2000-01-01T00:00:00Z</time>
      </trkpt>
      <trkpt lat="47.59469" lon="6.58886">
        <ele>352.76</ele>
        <time>2000-01-01T00:00:00Z</time>
      </trkpt>
      <trkpt lat="47.59468" lon="6.58901">
        <ele>353.15696812002</ele>
        <time>2000-01-01T00:00:00Z</time>
      </trkpt>
      <trkpt lat="47.59478" lon="6.5892">
        <ele>353.80691900379</ele>
        <time>2000-01-01T00:00:00Z</time>
      </trkpt>
      <trkpt lat="47.59486" lon="6.58932">
        <ele>354.18772531005</ele>
        <time>2000-01-01T00:00:00Z</time>
      </trkpt>
      <trkpt lat="47.59499" lon="6.58947">
        <ele>354.73</ele>
        <time>2000-01-01T00:00:00Z</time>
      </trkpt>
      <trkpt lat="47.59526" lon="6.58979">
        <ele>355.62624626286</ele>
        <time>2000-01-01T00:00:00Z</time>
      </trkpt>
      <trkpt lat="47.59528" lon="6.58984">
        <ele>355.72785587131</ele>
        <time>2000-01-01T00:00:00Z</time>
      </trkpt>
      <trkpt lat="47.59534" lon="6.5899">
        <ele>355.91542336975</ele>
        <time>2000-01-01T00:00:00Z</time>
      </trkpt>
      <trkpt lat="47.59538" lon="6.59">
        <ele>356.13</ele>
        <time>2000-01-01T00:00:00Z</time>
      </trkpt>
      <trkpt lat="47.59539" lon="6.59002">
        <ele>356.25422989634</ele>
        <time>2000-01-01T00:00:00Z</time>
      </trkpt>
      <trkpt lat="47.5954" lon="6.59012">
        <ele>356.94081893926</ele>
        <time>2000-01-01T00:00:00Z</time>
      </trkpt>
      <trkpt lat="47.59534" lon="6.59017">
        <ele>357.63397070168</ele>
        <time>2000-01-01T00:00:00Z</time>
      </trkpt>
      <trkpt lat="47.59528" lon="6.59019">
        <ele>358.25332066201</ele>
        <time>2000-01-01T00:00:00Z</time>
      </trkpt>
      <trkpt lat="47.59522" lon="6.59019">
        <ele>358.85</ele>
        <time>2000-01-01T00:00:00Z</time>
      </trkpt>
      <trkpt lat="47.59498" lon="6.59019">
        <ele>362.95055727501</ele>
        <time>2000-01-01T00:00:00Z</time>
      </trkpt>
      <trkpt lat="47.59495" lon="6.59021">
        <ele>363.45</ele>
        <time>2000-01-01T00:00:00Z</time>
      </trkpt>
      <trkpt lat="47.59487" lon="6.59026">
        <ele>365.04621554946</ele>
        <time>2000-01-01T00:00:00Z</time>
      </trkpt>
      <trkpt lat="47.59482" lon="6.59035">
        <ele>366.4350585501</ele>
        <time>2000-01-01T00:00:00Z</time>
      </trkpt>
      <trkpt lat="47.59481" lon="6.5905">
        <ele>368.22</ele>
        <time>2000-01-01T00:00:00Z</time>
      </trkpt>
      <trkpt lat="47.59481" lon="6.59058">
        <ele>369.03119440346</ele>
        <time>2000-01-01T00:00:00Z</time>
      </trkpt>
      <trkpt lat="47.59488" lon="6.5908">
        <ele>371.47902879587</ele>
        <time>2000-01-01T00:00:00Z</time>
      </trkpt>
      <trkpt lat="47.59488" lon="6.59088">
        <ele>372.25</ele>
        <time>2000-01-01T00:00:00Z</time>
      </trkpt>
      <trkpt lat="47.59488" lon="6.59104">
        <ele>374.48153512453</ele>
        <time>2000-01-01T00:00:00Z</time>
      </trkpt>
      <trkpt lat="47.59479" lon="6.59113">
        <ele>376.68010039867</ele>
        <time>2000-01-01T00:00:00Z</time>
      </trkpt>
      <trkpt lat="47.59474" lon="6.59115">
        <ele>377.72</ele>
        <time>2000-01-01T00:00:00Z</time>
      </trkpt>
      <trkpt lat="47.59465" lon="6.59118">
        <ele>379.46286185918</ele>
        <time>2000-01-01T00:00:00Z</time>
      </trkpt>
      <trkpt lat="47.59448" lon="6.59127">
        <ele>382.8</ele>
        <time>2000-01-01T00:00:00Z</time>
      </trkpt>
      <trkpt lat="47.59445" lon="6.59129">
        <ele>383.03170338854</ele>
        <time>2000-01-01T00:00:00Z</time>
      </trkpt>
      <trkpt lat="47.59436" lon="6.5913">
        <ele>383.61427667168</ele>
        <time>2000-01-01T00:00:00Z</time>
      </trkpt>
      <trkpt lat="47.59433" lon="6.59132">
        <ele>383.82659544854</ele>
        <time>2000-01-01T00:00:00Z</time>
      </trkpt>
      <trkpt lat="47.5943" lon="6.59144">
        <ele>384.38370091935</ele>
        <time>2000-01-01T00:00:00Z</time>
      </trkpt>
      <trkpt lat="47.59407" lon="6.59131">
        <ele>385.97253271595</ele>
        <time>2000-01-01T00:00:00Z</time>
      </trkpt>
      <trkpt lat="47.59376" lon="6.59119">
        <ele>388.03</ele>
        <time>2000-01-01T00:00:00Z</time>
      </trkpt>
      <trkpt lat="47.5937" lon="6.59116">
        <ele>389.45117994453</ele>
        <time>2000-01-01T00:00:00Z</time>
      </trkpt>
      <trkpt lat="47.5935" lon="6.5911">
        <ele>393.95</ele>
        <time>2000-01-01T00:00:00Z</time>
      </trkpt>
      <trkpt lat="47.59329" lon="6.59103">
        <ele>396.66815739153</ele>
        <time>2000-01-01T00:00:00Z</time>
      </trkpt>
      <trkpt lat="47.59324" lon="6.59099">
        <ele>397.38</ele>
        <time>2000-01-01T00:00:00Z</time>
      </trkpt>
      <trkpt lat="47.593" lon="6.59082">
        <ele>398.05</ele>
        <time>2000-01-01T00:00:00Z</time>
      </trkpt>
      <trkpt lat="47.59283" lon="6.5907">
        <ele>397.50236612841</ele>
        <time>2000-01-01T00:00:00Z</time>
      </trkpt>
      <trkpt lat="47.59275" lon="6.59064">
        <ele>397.25</ele>
        <time>2000-01-01T00:00:00Z</time>
      </trkpt>
      <trkpt lat="47.59251" lon="6.59046">
        <ele>397.1</ele>
        <time>2000-01-01T00:00:00Z</time>
      </trkpt>
      <trkpt lat="47.59227" lon="6.59029">
        <ele>398.41</ele>
        <time>2000-01-01T00:00:00Z</time>
      </trkpt>
      <trkpt lat="47.59203" lon="6.59011">
        <ele>400.72</ele>
        <time>2000-01-01T00:00:00Z</time>
      </trkpt>
      <trkpt lat="47.59179" lon="6.58993">
        <ele>403.61</ele>
        <time>2000-01-01T00:00:00Z</time>
      </trkpt>
      <trkpt lat="47.59155" lon="6.58975">
        <ele>406.65</ele>
        <time>2000-01-01T00:00:00Z</time>
      </trkpt>
      <trkpt lat="47.5914" lon="6.58964">
        <ele>408.740073941</ele>
        <time>2000-01-01T00:00:00Z</time>
      </trkpt>
      <trkpt lat="47.5913" lon="6.58958">
        <ele>410.11</ele>
        <time>2000-01-01T00:00:00Z</time>
      </trkpt>
      <trkpt lat="47.59056" lon="6.58911">
        <ele>413.8</ele>
        <time>2000-01-01T00:00:00Z</time>
      </trkpt>
      <trkpt lat="47.59031" lon="6.58895">
        <ele>418.98</ele>
        <time>2000-01-01T00:00:00Z</time>
      </trkpt>
      <trkpt lat="47.59006" lon="6.58879">
        <ele>425.92</ele>
        <time>2000-01-01T00:00:00Z</time>
      </trkpt>
      <trkpt lat="47.58998" lon="6.58874">
        <ele>428.0066513942</ele>
        <time>2000-01-01T00:00:00Z</time>
      </trkpt>
      <trkpt lat="47.58984" lon="6.58872">
        <ele>431.38124380649</ele>
        <time>2000-01-01T00:00:00Z</time>
      </trkpt>
      <trkpt lat="47.58982" lon="6.58877">
        <ele>432.4</ele>
        <time>2000-01-01T00:00:00Z</time>
      </trkpt>
      <trkpt lat="47.58979" lon="6.58884">
        <ele>432.84757634432</ele>
        <time>2000-01-01T00:00:00Z</time>
      </trkpt>
      <trkpt lat="47.5898" lon="6.58907">
        <ele>434.16845320705</ele>
        <time>2000-01-01T00:00:00Z</time>
      </trkpt>
      <trkpt lat="47.58984" lon="6.58928">
        <ele>435.41904993676</ele>
        <time>2000-01-01T00:00:00Z</time>
      </trkpt>
      <trkpt lat="47.58984" lon="6.58955">
        <ele>436.99</ele>
        <time>2000-01-01T00:00:00Z</time>
      </trkpt>
      <trkpt lat="47.58984" lon="6.58967">
        <ele>438.28069116998</ele>
        <time>2000-01-01T00:00:00Z</time>
      </trkpt>
      <trkpt lat="47.58976" lon="6.58993">
        <ele>441.45</ele>
        <time>2000-01-01T00:00:00Z</time>
      </trkpt>
      <trkpt lat="47.58974" lon="6.59001">
        <ele>442.13148581363</ele>
        <time>2000-01-01T00:00:00Z</time>
      </trkpt>
      <trkpt lat="47.58956" lon="6.59018">
        <ele>444.61</ele>
        <time>2000-01-01T00:00:00Z</time>
      </trkpt>
      <trkpt lat="47.58955" lon="6.59019">
        <ele>444.69484347556</ele>
        <time>2000-01-01T00:00:00Z</time>
      </trkpt>
      <trkpt lat="47.5893" lon="6.59026">
        <ele>446.29</ele>
        <time>2000-01-01T00:00:00Z</time>
      </trkpt>
      <trkpt lat="47.58928" lon="6.59026">
        <ele>446.36845994407</ele>
        <time>2000-01-01T00:00:00Z</time>
      </trkpt>
      <trkpt lat="47.58904" lon="6.59015">
        <ele>447.49</ele>
        <time>2000-01-01T00:00:00Z</time>
      </trkpt>
      <trkpt lat="47.58892" lon="6.5901">
        <ele>447.54254702807</ele>
        <time>2000-01-01T00:00:00Z</time>
      </trkpt>
      <trkpt lat="47.58852" lon="6.58993">
        <ele>447.72</ele>
        <time>2000-01-01T00:00:00Z</time>
      </trkpt>
      <trkpt lat="47.58849" lon="6.58992">
        <ele>447.61092189277</ele>
        <time>2000-01-01T00:00:00Z</time>
      </trkpt>
      <trkpt lat="47.58827" lon="6.58978">
        <ele>446.74</ele>
        <time>2000-01-01T00:00:00Z</time>
      </trkpt>
      <trkpt lat="47.58818" lon="6.58973">
        <ele>446.58983622588</ele>
        <time>2000-01-01T00:00:00Z</time>
      </trkpt>
      <trkpt lat="47.5879" lon="6.58962">
        <ele>446.13401705169</ele>
        <time>2000-01-01T00:00:00Z</time>
      </trkpt>
      <trkpt lat="47.58777" lon="6.58954">
        <ele>445.91252529117</ele>
        <time>2000-01-01T00:00:00Z</time>
      </trkpt>
      <trkpt lat="47.58776" lon="6.58956">
        <ele>445.89</ele>
        <time>2000-01-01T00:00:00Z</time>
      </trkpt>
      <trkpt lat="47.58745" lon="6.59021">
        <ele>445.57</ele>
        <time>2000-01-01T00:00:00Z</time>
      </trkpt>
      <trkpt lat="47.58714" lon="6.59087">
        <ele>445.59</ele>
        <time>2000-01-01T00:00:00Z</time>
      </trkpt>
      <trkpt lat="47.58698" lon="6.59119">
        <ele>446.14</ele>
        <time>2000-01-01T00:00:00Z</time>
      </trkpt>
      <trkpt lat="47.58683" lon="6.59152">
        <ele>446.31</ele>
        <time>2000-01-01T00:00:00Z</time>
      </trkpt>
      <trkpt lat="47.58667" lon="6.59185">
        <ele>445.95</ele>
        <time>2000-01-01T00:00:00Z</time>
      </trkpt>
      <trkpt lat="47.58652" lon="6.59218">
        <ele>445.47</ele>
        <time>2000-01-01T00:00:00Z</time>
      </trkpt>
      <trkpt lat="47.58651" lon="6.59219">
        <ele>445.46053639332</ele>
        <time>2000-01-01T00:00:00Z</time>
      </trkpt>
      <trkpt lat="47.5869" lon="6.5924">
        <ele>445.13022874894</ele>
        <time>2000-01-01T00:00:00Z</time>
      </trkpt>
      <trkpt lat="47.587" lon="6.59247">
        <ele>445.04</ele>
        <time>2000-01-01T00:00:00Z</time>
      </trkpt>
      <trkpt lat="47.58701" lon="6.59248">
        <ele>445.03456265629</ele>
        <time>2000-01-01T00:00:00Z</time>
      </trkpt>
      <trkpt lat="47.58712" lon="6.59259">
        <ele>444.95595907119</ele>
        <time>2000-01-01T00:00:00Z</time>
      </trkpt>
      <trkpt lat="47.58719" lon="6.59261">
        <ele>444.9137264961</ele>
        <time>2000-01-01T00:00:00Z</time>
      </trkpt>
      <trkpt lat="47.58737" lon="6.59261">
        <ele>444.80709037787</ele>
        <time>2000-01-01T00:00:00Z</time>
      </trkpt>
      <trkpt lat="47.58744" lon="6.59258">
        <ele>444.76392306141</ele>
        <time>2000-01-01T00:00:00Z</time>
      </trkpt>
      <trkpt lat="47.58751" lon="6.59257">
        <ele>444.72</ele>
        <time>2000-01-01T00:00:00Z</time>
      </trkpt>
      <trkpt lat="47.58773" lon="6.59252">
        <ele>443.78080438145</ele>
        <time>2000-01-01T00:00:00Z</time>
      </trkpt>
      <trkpt lat="47.58778" lon="6.5925">
        <ele>443.56</ele>
        <time>2000-01-01T00:00:00Z</time>
      </trkpt>
      <trkpt lat="47.588" lon="6.59241">
        <ele>441.68941319411</ele>
        <time>2000-01-01T00:00:00Z</time>
      </trkpt>
      <trkpt lat="47.58804" lon="6.5924">
        <ele>441.35</ele>
        <time>2000-01-01T00:00:00Z</time>
      </trkpt>
      <trkpt lat="47.58841" lon="6.59233">
        <ele>439.15274036127</ele>
        <time>2000-01-01T00:00:00Z</time>
      </trkpt>
      <trkpt lat="47.58858" lon="6.59233">
        <ele>438.16</ele>
        <time>2000-01-01T00:00:00Z</time>
      </trkpt>
      <trkpt lat="47.58873" lon="6.59233">
        <ele>435.1003372359</ele>
        <time>2000-01-01T00:00:00Z</time>
      </trkpt>
      <trkpt lat="47.58882" lon="6.59239">
        <ele>433.11270561855</ele>
        <time>2000-01-01T00:00:00Z</time>
      </trkpt>
      <trkpt lat="47.58883" lon="6.59241">
        <ele>432.72</ele>
        <time>2000-01-01T00:00:00Z</time>
      </trkpt>
      <trkpt lat="47.58889" lon="6.5925">
        <ele>431.2139768986</ele>
        <time>2000-01-01T00:00:00Z</time>
      </trkpt>
      <trkpt lat="47.58894" lon="6.59263">
        <ele>429.37154827764</ele>
        <time>2000-01-01T00:00:00Z</time>
      </trkpt>
      <trkpt lat="47.58894" lon="6.59276">
        <ele>427.79</ele>
        <time>2000-01-01T00:00:00Z</time>
      </trkpt>
      <trkpt lat="47.58894" lon="6.5929">
        <ele>427.16792641856</ele>
        <time>2000-01-01T00:00:00Z</time>
      </trkpt>
      <trkpt lat="47.58888" lon="6.59314">
        <ele>426.04296122004</ele>
        <time>2000-01-01T00:00:00Z</time>
      </trkpt>
      <trkpt lat="47.58875" lon="6.59346">
        <ele>424.40108155289</ele>
        <time>2000-01-01T00:00:00Z</time>
      </trkpt>
      <trkpt lat="47.58874" lon="6.59349">
        <ele>424.27</ele>
        <time>2000-01-01T00:00:00Z</time>
      </trkpt>
      <trkpt lat="47.58871" lon="6.59362">
        <ele>423.61066316</ele>
        <time>2000-01-01T00:00:00Z</time>
      </trkpt>
      <trkpt lat="47.58867" lon="6.59394">
        <ele>422.08680217864</ele>
        <time>2000-01-01T00:00:00Z</time>
      </trkpt>
      <trkpt lat="47.58871" lon="6.59403">
        <ele>421.58212192509</ele>
        <time>2000-01-01T00:00:00Z</time>
      </trkpt>
      <trkpt lat="47.58875" lon="6.59405">
        <ele>421.28905885622</ele>
        <time>2000-01-01T00:00:00Z</time>
      </trkpt>
      <trkpt lat="47.58882" lon="6.59405">
        <ele>420.80308696324</ele>
        <time>2000-01-01T00:00:00Z</time>
      </trkpt>
      <trkpt lat="47.58885" lon="6.59401">
        <ele>420.52</ele>
        <time>2000-01-01T00:00:00Z</time>
      </trkpt>
      <trkpt lat="47.58899" lon="6.59381">
        <ele>417.00818241663</ele>
        <time>2000-01-01T00:00:00Z</time>
      </trkpt>
      <trkpt lat="47.58904" lon="6.59372">
        <ele>415.63</ele>
        <time>2000-01-01T00:00:00Z</time>
      </trkpt>
      <trkpt lat="47.58916" lon="6.5935">
        <ele>412.48715810626</ele>
        <time>2000-01-01T00:00:00Z</time>
      </trkpt>
      <trkpt lat="47.58922" lon="6.59343">
        <ele>411.24</ele>
        <time>2000-01-01T00:00:00Z</time>
      </trkpt>
      <trkpt lat="47.5893" lon="6.59332">
        <ele>409.59571234525</ele>
        <time>2000-01-01T00:00:00Z</time>
      </trkpt>
      <trkpt lat="47.58943" lon="6.59318">
        <ele>407.15</ele>
        <time>2000-01-01T00:00:00Z</time>
      </trkpt>
      <trkpt lat="47.58965" lon="6.59295">
        <ele>404.26</ele>
        <time>2000-01-01T00:00:00Z</time>
      </trkpt>
      <trkpt lat="47.58968" lon="6.59292">
        <ele>403.98067025272</ele>
        <time>2000-01-01T00:00:00Z</time>
      </trkpt>
      <trkpt lat="47.58987" lon="6.59277">
        <ele>402.2352193238</ele>
        <time>2000-01-01T00:00:00Z</time>
      </trkpt>
      <trkpt lat="47.58989" lon="6.59276">
        <ele>402.07</ele>
        <time>2000-01-01T00:00:00Z</time>
      </trkpt>
      <trkpt lat="47.58994" lon="6.59275">
        <ele>401.760842806</ele>
        <time>2000-01-01T00:00:00Z</time>
      </trkpt>
      <trkpt lat="47.59016" lon="6.59276">
        <ele>400.43</ele>
        <time>2000-01-01T00:00:00Z</time>
      </trkpt>
      <trkpt lat="47.5902" lon="6.59276">
        <ele>400.22847642218</ele>
        <time>2000-01-01T00:00:00Z</time>
      </trkpt>
      <trkpt lat="47.59038" lon="6.59286">
        <ele>399.28188615915</ele>
        <time>2000-01-01T00:00:00Z</time>
      </trkpt>
      <trkpt lat="47.59041" lon="6.59289">
        <ele>399.1</ele>
        <time>2000-01-01T00:00:00Z</time>
      </trkpt>
      <trkpt lat="47.59056" lon="6.59301">
        <ele>398.13323991024</ele>
        <time>2000-01-01T00:00:00Z</time>
      </trkpt>
      <trkpt lat="47.59064" lon="6.5931">
        <ele>397.56</ele>
        <time>2000-01-01T00:00:00Z</time>
      </trkpt>
      <trkpt lat="47.59075" lon="6.59323">
        <ele>396.76905133008</ele>
        <time>2000-01-01T00:00:00Z</time>
      </trkpt>
      <trkpt lat="47.59084" lon="6.59337">
        <ele>396.04</ele>
        <time>2000-01-01T00:00:00Z</time>
      </trkpt>
      <trkpt lat="47.59103" lon="6.59366">
        <ele>393.82</ele>
        <time>2000-01-01T00:00:00Z</time>
      </trkpt>
      <trkpt lat="47.59111" lon="6.59378">
        <ele>392.6257544584</ele>
        <time>2000-01-01T00:00:00Z</time>
      </trkpt>
      <trkpt lat="47.59121" lon="6.59389">
        <ele>391.35792785636</ele>
        <time>2000-01-01T00:00:00Z</time>
      </trkpt>
      <trkpt lat="47.59123" lon="6.59392">
        <ele>391.07</ele>
        <time>2000-01-01T00:00:00Z</time>
      </trkpt>
      <trkpt lat="47.59126" lon="6.59397">
        <ele>390.4027040895</ele>
        <time>2000-01-01T00:00:00Z</time>
      </trkpt>
      <trkpt lat="47.59126" lon="6.59403">
        <ele>389.80639229497</ele>
        <time>2000-01-01T00:00:00Z</time>
      </trkpt>
      <trkpt lat="47.59129" lon="6.5943">
        <ele>387.09</ele>
        <time>2000-01-01T00:00:00Z</time>
      </trkpt>
      <trkpt lat="47.59138" lon="6.59509">
        <ele>381.26</ele>
        <time>2000-01-01T00:00:00Z</time>
      </trkpt>
      <trkpt lat="47.59138" lon="6.59514">
        <ele>380.71517798225</ele>
        <time>2000-01-01T00:00:00Z</time>
      </trkpt>
      <trkpt lat="47.59151" lon="6.59543">
        <ele>376.89</ele>
        <time>2000-01-01T00:00:00Z</time>
      </trkpt>
      <trkpt lat="47.59163" lon="6.5957">
        <ele>374.32466069189</ele>
        <time>2000-01-01T00:00:00Z</time>
      </trkpt>
      <trkpt lat="47.59165" lon="6.59577">
        <ele>373.69</ele>
        <time>2000-01-01T00:00:00Z</time>
      </trkpt>
      <trkpt lat="47.5917" lon="6.59591">
        <ele>372.6345407119</ele>
        <time>2000-01-01T00:00:00Z</time>
      </trkpt>
      <trkpt lat="47.5918" lon="6.59611">
        <ele>370.96</ele>
        <time>2000-01-01T00:00:00Z</time>
      </trkpt>
      <trkpt lat="47.59206" lon="6.59663">
        <ele>369.38399907377</ele>
        <time>2000-01-01T00:00:00Z</time>
      </trkpt>
      <trkpt lat="47.5921" lon="6.59676">
        <ele>369.03789304367</ele>
        <time>2000-01-01T00:00:00Z</time>
      </trkpt>
      <trkpt lat="47.59225" lon="6.5971">
        <ele>366.34</ele>
        <time>2000-01-01T00:00:00Z</time>
      </trkpt>
      <trkpt lat="47.59236" lon="6.59734">
        <ele>364.39433208843</ele>
        <time>2000-01-01T00:00:00Z</time>
      </trkpt>
      <trkpt lat="47.59239" lon="6.59744">
        <ele>363.64</ele>
        <time>2000-01-01T00:00:00Z</time>
      </trkpt>
      <trkpt lat="47.59241" lon="6.59751">
        <ele>363.33684192779</ele>
        <time>2000-01-01T00:00:00Z</time>
      </trkpt>
      <trkpt lat="47.59242" lon="6.59764">
        <ele>362.79774896923</ele>
        <time>2000-01-01T00:00:00Z</time>
      </trkpt>
      <trkpt lat="47.59243" lon="6.59784">
        <ele>361.99</ele>
        <time>2000-01-01T00:00:00Z</time>
      </trkpt>
      <trkpt lat="47.59243" lon="6.59793">
        <ele>361.73560678755</ele>
        <time>2000-01-01T00:00:00Z</time>
      </trkpt>
      <trkpt lat="47.59225" lon="6.59807">
        <ele>360.91</ele>
        <time>2000-01-01T00:00:00Z</time>
      </trkpt>
      <trkpt lat="47.59216" lon="6.59813">
        <ele>361.01591949651</ele>
        <time>2000-01-01T00:00:00Z</time>
      </trkpt>
      <trkpt lat="47.59205" lon="6.59818">
        <ele>361.14371887376</ele>
        <time>2000-01-01T00:00:00Z</time>
      </trkpt>
      <trkpt lat="47.59199" lon="6.5982">
        <ele>361.21</ele>
        <time>2000-01-01T00:00:00Z</time>
      </trkpt>
      <trkpt lat="47.59184" lon="6.59824">
        <ele>362.63159354088</ele>
        <time>2000-01-01T00:00:00Z</time>
      </trkpt>
      <trkpt lat="47.59173" lon="6.59829">
        <ele>363.7</ele>
        <time>2000-01-01T00:00:00Z</time>
      </trkpt>
      <trkpt lat="47.59147" lon="6.5984">
        <ele>367.35</ele>
        <time>2000-01-01T00:00:00Z</time>
      </trkpt>
      <trkpt lat="47.59136" lon="6.59844">
        <ele>368.84712452092</ele>
        <time>2000-01-01T00:00:00Z</time>
      </trkpt>
      <trkpt lat="47.59121" lon="6.59848">
        <ele>370.94</ele>
        <time>2000-01-01T00:00:00Z</time>
      </trkpt>
      <trkpt lat="47.59096" lon="6.59855">
        <ele>374.04242304575</ele>
        <time>2000-01-01T00:00:00Z</time>
      </trkpt>
      <trkpt lat="47.59094" lon="6.59857">
        <ele>374.3</ele>
        <time>2000-01-01T00:00:00Z</time>
      </trkpt>
      <trkpt lat="47.59091" lon="6.5986">
        <ele>374.61967665909</ele>
        <time>2000-01-01T00:00:00Z</time>
      </trkpt>
      <trkpt lat="47.59089" lon="6.5986">
        <ele>374.78111189363</ele>
        <time>2000-01-01T00:00:00Z</time>
      </trkpt>
      <trkpt lat="47.5908" lon="6.59888">
        <ele>376.48</ele>
        <time>2000-01-01T00:00:00Z</time>
      </trkpt>
      <trkpt lat="47.59057" lon="6.59962">
        <ele>378.26317976961</ele>
        <time>2000-01-01T00:00:00Z</time>
      </trkpt>
      <trkpt lat="47.59056" lon="6.59975">
        <ele>378.84476701356</ele>
        <time>2000-01-01T00:00:00Z</time>
      </trkpt>
      <trkpt lat="47.59056" lon="6.60001">
        <ele>379.99</ele>
        <time>2000-01-01T00:00:00Z</time>
      </trkpt>
      <trkpt lat="47.59056" lon="6.60024">
        <ele>380.34973323858</ele>
        <time>2000-01-01T00:00:00Z</time>
      </trkpt>
      <trkpt lat="47.5906" lon="6.6004">
        <ele>380.61</ele>
        <time>2000-01-01T00:00:00Z</time>
      </trkpt>
      <trkpt lat="47.59064" lon="6.6006">
        <ele>380.38350511157</ele>
        <time>2000-01-01T00:00:00Z</time>
      </trkpt>
      <trkpt lat="47.59072" lon="6.60075">
        <ele>380.18</ele>
        <time>2000-01-01T00:00:00Z</time>
      </trkpt>
      <trkpt lat="47.59079" lon="6.60088">
        <ele>380.04570406029</ele>
        <time>2000-01-01T00:00:00Z</time>
      </trkpt>
      <trkpt lat="47.59084" lon="6.60094">
        <ele>379.96949133923</ele>
        <time>2000-01-01T00:00:00Z</time>
      </trkpt>
      <trkpt lat="47.5909" lon="6.60099">
        <ele>379.88794238989</ele>
        <time>2000-01-01T00:00:00Z</time>
      </trkpt>
      <trkpt lat="47.59092" lon="6.60099">
        <ele>379.86</ele>
        <time>2000-01-01T00:00:00Z</time>
      </trkpt>
      <trkpt lat="47.59114" lon="6.60103">
        <ele>380.05769305481</ele>
        <time>2000-01-01T00:00:00Z</time>
      </trkpt>
      <trkpt lat="47.59116" lon="6.60105">
        <ele>380.07957647346</ele>
        <time>2000-01-01T00:00:00Z</time>
      </trkpt>
      <trkpt lat="47.59118" lon="6.60149">
        <ele>380.35</ele>
        <time>2000-01-01T00:00:00Z</time>
      </trkpt>
      <trkpt lat="47.5912" lon="6.60189">
        <ele>380.9</ele>
        <time>2000-01-01T00:00:00Z</time>
      </trkpt>
      <trkpt lat="47.59121" lon="6.60211">
        <ele>380.46028337566</ele>
        <time>2000-01-01T00:00:00Z</time>
      </trkpt>
      <trkpt lat="47.59124" lon="6.60229">
        <ele>380.1</ele>
        <time>2000-01-01T00:00:00Z</time>
      </trkpt>
      <trkpt lat="47.59125" lon="6.60234">
        <ele>379.69452718892</ele>
        <time>2000-01-01T00:00:00Z</time>
      </trkpt>
      <trkpt lat="47.5913" lon="6.60251">
        <ele>378.37925879731</ele>
        <time>2000-01-01T00:00:00Z</time>
      </trkpt>
      <trkpt lat="47.59131" lon="6.60254">
        <ele>378.14193629732</ele>
        <time>2000-01-01T00:00:00Z</time>
      </trkpt>
      <trkpt lat="47.59139" lon="6.60251">
        <ele>377.26</ele>
        <time>2000-01-01T00:00:00Z</time>
      </trkpt>
      <trkpt lat="47.59166" lon="6.60243">
        <ele>373.57</ele>
        <time>2000-01-01T00:00:00Z</time>
      </trkpt>
      <trkpt lat="47.59192" lon="6.60235">
        <ele>369.32</ele>
        <time>2000-01-01T00:00:00Z</time>
      </trkpt>
      <trkpt lat="47.59205" lon="6.60231">
        <ele>366.89474938395</ele>
        <time>2000-01-01T00:00:00Z</time>
      </trkpt>
      <trkpt lat="47.59218" lon="6.60226">
        <ele>364.36</ele>
        <time>2000-01-01T00:00:00Z</time>
      </trkpt>
      <trkpt lat="47.59244" lon="6.60215">
        <ele>359.36</ele>
        <time>2000-01-01T00:00:00Z</time>
      </trkpt>
      <trkpt lat="47.59246" lon="6.60214">
        <ele>359.0414323043</ele>
        <time>2000-01-01T00:00:00Z</time>
      </trkpt>
      <trkpt lat="47.59269" lon="6.6021">
        <ele>354.85709921194</ele>
        <time>2000-01-01T00:00:00Z</time>
      </trkpt>
      <trkpt lat="47.59271" lon="6.6021">
        <ele>354.48</ele>
        <time>2000-01-01T00:00:00Z</time>
      </trkpt>
      <trkpt lat="47.59291" lon="6.6021">
        <ele>351.066268451</ele>
        <time>2000-01-01T00:00:00Z</time>
      </trkpt>
      <trkpt lat="47.59298" lon="6.60209">
        <ele>349.85</ele>
        <time>2000-01-01T00:00:00Z</time>
      </trkpt>
      <trkpt lat="47.59302" lon="6.60208">
        <ele>349.18115398866</ele>
        <time>2000-01-01T00:00:00Z</time>
      </trkpt>
      <trkpt lat="47.59325" lon="6.60207">
        <ele>345.32</ele>
        <time>2000-01-01T00:00:00Z</time>
      </trkpt>
      <trkpt lat="47.59344" lon="6.60206">
        <ele>342.31579937166</ele>
        <time>2000-01-01T00:00:00Z</time>
      </trkpt>
      <trkpt lat="47.59352" lon="6.60205">
        <ele>341.05</ele>
        <time>2000-01-01T00:00:00Z</time>
      </trkpt>
      <trkpt lat="47.59374" lon="6.60202">
        <ele>337.66821458286</ele>
        <time>2000-01-01T00:00:00Z</time>
      </trkpt>
      <trkpt lat="47.59379" lon="6.60202">
        <ele>336.92</ele>
        <time>2000-01-01T00:00:00Z</time>
      </trkpt>
      <trkpt lat="47.59389" lon="6.60202">
        <ele>335.66258487977</ele>
        <time>2000-01-01T00:00:00Z</time>
      </trkpt>
      <trkpt lat="47.59398" lon="6.602">
        <ele>334.53040216889</ele>
        <time>2000-01-01T00:00:00Z</time>
      </trkpt>
      <trkpt lat="47.59405" lon="6.60196">
        <ele>333.56</ele>
        <time>2000-01-01T00:00:00Z</time>
      </trkpt>
      <trkpt lat="47.5941" lon="6.60194">
        <ele>333.17641706828</ele>
        <time>2000-01-01T00:00:00Z</time>
      </trkpt>
      <trkpt lat="47.5942" lon="6.60189">
        <ele>332.34412675326</ele>
        <time>2000-01-01T00:00:00Z</time>
      </trkpt>
      <trkpt lat="47.5943" lon="6.60181">
        <ele>331.43</ele>
        <time>2000-01-01T00:00:00Z</time>
      </trkpt>
      <trkpt lat="47.59433" lon="6.60179">
        <ele>331.34631524828</ele>
        <time>2000-01-01T00:00:00Z</time>
      </trkpt>
      <trkpt lat="47.59438" lon="6.60178">
        <ele>331.20807699137</ele>
        <time>2000-01-01T00:00:00Z</time>
      </trkpt>
      <trkpt lat="47.5944" lon="6.60176">
        <ele>331.14198141436</ele>
        <time>2000-01-01T00:00:00Z</time>
      </trkpt>
      <trkpt lat="47.59457" lon="6.60176">
        <ele>330.69</ele>
        <time>2000-01-01T00:00:00Z</time>
      </trkpt>
      <trkpt lat="47.59464" lon="6.60176">
        <ele>330.79002550446</ele>
        <time>2000-01-01T00:00:00Z</time>
      </trkpt>
      <trkpt lat="47.59468" lon="6.60179">
        <ele>330.8497753258</ele>
        <time>2000-01-01T00:00:00Z</time>
      </trkpt>
      <trkpt lat="47.59468" lon="6.60183">
        <ele>330.88573147605</ele>
        <time>2000-01-01T00:00:00Z</time>
      </trkpt>
      <trkpt lat="47.59457" lon="6.60191">
        <ele>331.05</ele>
        <time>2000-01-01T00:00:00Z</time>
      </trkpt>
      <trkpt lat="47.59433" lon="6.60209">
        <ele>332.3</ele>
        <time>2000-01-01T00:00:00Z</time>
      </trkpt>
      <trkpt lat="47.59409" lon="6.60227">
        <ele>335.16</ele>
        <time>2000-01-01T00:00:00Z</time>
      </trkpt>
      <trkpt lat="47.59393" lon="6.60238">
        <ele>337.90010480438</ele>
        <time>2000-01-01T00:00:00Z</time>
      </trkpt>
      <trkpt lat="47.59387" lon="6.60246">
        <ele>339.17581502059</ele>
        <time>2000-01-01T00:00:00Z</time>
      </trkpt>
      <trkpt lat="47.59386" lon="6.60247">
        <ele>339.43</ele>
        <time>2000-01-01T00:00:00Z</time>
      </trkpt>
      <trkpt lat="47.59377" lon="6.60257">
        <ele>341.52980022479</ele>
        <time>2000-01-01T00:00:00Z</time>
      </trkpt>
      <trkpt lat="47.59363" lon="6.60269">
        <ele>344.66</ele>
        <time>2000-01-01T00:00:00Z</time>
      </trkpt>
      <trkpt lat="47.5934" lon="6.60289">
        <ele>350.19</ele>
        <time>2000-01-01T00:00:00Z</time>
      </trkpt>
      <trkpt lat="47.59327" lon="6.603">
        <ele>352.33491108254</ele>
        <time>2000-01-01T00:00:00Z</time>
      </trkpt>
      <trkpt lat="47.59317" lon="6.60312">
        <ele>354.15</ele>
        <time>2000-01-01T00:00:00Z</time>
      </trkpt>
      <trkpt lat="47.59307" lon="6.60324">
        <ele>355.58837301773</ele>
        <time>2000-01-01T00:00:00Z</time>
      </trkpt>
      <trkpt lat="47.59295" lon="6.60334">
        <ele>357.06</ele>
        <time>2000-01-01T00:00:00Z</time>
      </trkpt>
      <trkpt lat="47.59274" lon="6.60353">
        <ele>359.31911539165</ele>
        <time>2000-01-01T00:00:00Z</time>
      </trkpt>
      <trkpt lat="47.59272" lon="6.60354">
        <ele>359.53</ele>
        <time>2000-01-01T00:00:00Z</time>
      </trkpt>
      <trkpt lat="47.5925" lon="6.60365">
        <ele>361.58432332994</ele>
        <time>2000-01-01T00:00:00Z</time>
      </trkpt>
      <trkpt lat="47.59246" lon="6.60368">
        <ele>361.94</ele>
        <time>2000-01-01T00:00:00Z</time>
      </trkpt>
      <trkpt lat="47.59234" lon="6.60377">
        <ele>363.3650128739</ele>
        <time>2000-01-01T00:00:00Z</time>
      </trkpt>
      <trkpt lat="47.59221" lon="6.60382">
        <ele>364.7</ele>
        <time>2000-01-01T00:00:00Z</time>
      </trkpt>
      <trkpt lat="47.59209" lon="6.60387">
        <ele>366.29144763794</ele>
        <time>2000-01-01T00:00:00Z</time>
      </trkpt>
      <trkpt lat="47.59196" lon="6.60395">
        <ele>368.03730332948</ele>
        <time>2000-01-01T00:00:00Z</time>
      </trkpt>
      <trkpt lat="47.59169" lon="6.60399">
        <ele>372.02</ele>
        <time>2000-01-01T00:00:00Z</time>
      </trkpt>
      <trkpt lat="47.59161" lon="6.604">
        <ele>373.38546107122</ele>
        <time>2000-01-01T00:00:00Z</time>
      </trkpt>
      <trkpt lat="47.59143" lon="6.60407">
        <ele>376.6</ele>
        <time>2000-01-01T00:00:00Z</time>
      </trkpt>
      <trkpt lat="47.59139" lon="6.60408">
        <ele>377.18026569216</ele>
        <time>2000-01-01T00:00:00Z</time>
      </trkpt>
      <trkpt lat="47.59131" lon="6.60412">
        <ele>378.50568549024</ele>
        <time>2000-01-01T00:00:00Z</time>
      </trkpt>
      <trkpt lat="47.59125" lon="6.60418">
        <ele>379.64183597619</ele>
        <time>2000-01-01T00:00:00Z</time>
      </trkpt>
      <trkpt lat="47.59124" lon="6.60421">
        <ele>379.99614876742</ele>
        <time>2000-01-01T00:00:00Z</time>
      </trkpt>
      <trkpt lat="47.59122" lon="6.60422">
        <ele>380.32750379451</ele>
        <time>2000-01-01T00:00:00Z</time>
      </trkpt>
      <trkpt lat="47.5912" lon="6.60426">
        <ele>380.84</ele>
        <time>2000-01-01T00:00:00Z</time>
      </trkpt>
      <trkpt lat="47.59115" lon="6.60433">
        <ele>381.17639391871</ele>
        <time>2000-01-01T00:00:00Z</time>
      </trkpt>
      <trkpt lat="47.59105" lon="6.60453">
        <ele>381.99083169898</ele>
        <time>2000-01-01T00:00:00Z</time>
      </trkpt>
      <trkpt lat="47.59104" lon="6.60458">
        <ele>382.15</ele>
        <time>2000-01-01T00:00:00Z</time>
      </trkpt>
      <trkpt lat="47.59099" lon="6.60497">
        <ele>381.91</ele>
        <time>2000-01-01T00:00:00Z</time>
      </trkpt>
      <trkpt lat="47.59097" lon="6.60513">
        <ele>381.71117000093</ele>
        <time>2000-01-01T00:00:00Z</time>
      </trkpt>
      <trkpt lat="47.5909" lon="6.60535">
        <ele>381.41801764432</ele>
        <time>2000-01-01T00:00:00Z</time>
      </trkpt>
      <trkpt lat="47.59082" lon="6.6055">
        <ele>381.34638666325</ele>
        <time>2000-01-01T00:00:00Z</time>
      </trkpt>
      <trkpt lat="47.59073" lon="6.60557">
        <ele>381.28994150633</ele>
        <time>2000-01-01T00:00:00Z</time>
      </trkpt>
      <trkpt lat="47.59066" lon="6.60566">
        <ele>381.23848334908</ele>
        <time>2000-01-01T00:00:00Z</time>
      </trkpt>
      <trkpt lat="47.59063" lon="6.60571">
        <ele>381.21341585297</ele>
        <time>2000-01-01T00:00:00Z</time>
      </trkpt>
      <trkpt lat="47.59061" lon="6.60583">
        <ele>381.16711499487</ele>
        <time>2000-01-01T00:00:00Z</time>
      </trkpt>
      <trkpt lat="47.59057" lon="6.60589">
        <ele>381.13551371693</ele>
        <time>2000-01-01T00:00:00Z</time>
      </trkpt>
      <trkpt lat="47.59055" lon="6.60592">
        <ele>381.12</ele>
        <time>2000-01-01T00:00:00Z</time>
      </trkpt>
      <trkpt lat="47.59047" lon="6.606">
        <ele>381.18436891389</ele>
        <time>2000-01-01T00:00:00Z</time>
      </trkpt>
      <trkpt lat="47.59032" lon="6.60608">
        <ele>381.29061075812</ele>
        <time>2000-01-01T00:00:00Z</time>
      </trkpt>
      <trkpt lat="47.59031" lon="6.60609">
        <ele>381.3</ele>
        <time>2000-01-01T00:00:00Z</time>
      </trkpt>
      <trkpt lat="47.59022" lon="6.60616">
        <ele>381.61327358422</ele>
        <time>2000-01-01T00:00:00Z</time>
      </trkpt>
      <trkpt lat="47.59016" lon="6.60622">
        <ele>381.84104108455</ele>
        <time>2000-01-01T00:00:00Z</time>
      </trkpt>
      <trkpt lat="47.5901" lon="6.60634">
        <ele>382.16785536229</ele>
        <time>2000-01-01T00:00:00Z</time>
      </trkpt>
      <trkpt lat="47.5899" lon="6.6066">
        <ele>384.02</ele>
        <time>2000-01-01T00:00:00Z</time>
      </trkpt>
      <trkpt lat="47.58988" lon="6.60663">
        <ele>384.28067508522</ele>
        <time>2000-01-01T00:00:00Z</time>
      </trkpt>
      <trkpt lat="47.58982" lon="6.60669">
        <ele>384.98273633571</ele>
        <time>2000-01-01T00:00:00Z</time>
      </trkpt>
      <trkpt lat="47.5897" lon="6.60674">
        <ele>386.19193837159</ele>
        <time>2000-01-01T00:00:00Z</time>
      </trkpt>
      <trkpt lat="47.58965" lon="6.60675">
        <ele>386.64</ele>
        <time>2000-01-01T00:00:00Z</time>
      </trkpt>
      <trkpt lat="47.58949" lon="6.60678">
        <ele>388.36845946866</ele>
        <time>2000-01-01T00:00:00Z</time>
      </trkpt>
      <trkpt lat="47.58939" lon="6.60678">
        <ele>389.46</ele>
        <time>2000-01-01T00:00:00Z</time>
      </trkpt>
      <trkpt lat="47.58916" lon="6.60678">
        <ele>392.44023984717</ele>
        <time>2000-01-01T00:00:00Z</time>
      </trkpt>
      <trkpt lat="47.58912" lon="6.60676">
        <ele>393.03</ele>
        <time>2000-01-01T00:00:00Z</time>
      </trkpt>
      <trkpt lat="47.58887" lon="6.60661">
        <ele>397.16</ele>
        <time>2000-01-01T00:00:00Z</time>
      </trkpt>
      <trkpt lat="47.58879" lon="6.60657">
        <ele>398.27334963791</ele>
        <time>2000-01-01T00:00:00Z</time>
      </trkpt>
      <trkpt lat="47.58867" lon="6.60648">
        <ele>400.11069905703</ele>
        <time>2000-01-01T00:00:00Z</time>
      </trkpt>
      <trkpt lat="47.58861" lon="6.60647">
        <ele>400.9346988589</ele>
        <time>2000-01-01T00:00:00Z</time>
      </trkpt>
      <trkpt lat="47.58853" lon="6.60643">
        <ele>402.07569142985</ele>
        <time>2000-01-01T00:00:00Z</time>
      </trkpt>
      <trkpt lat="47.58842" lon="6.60641">
        <ele>403.5734383341</ele>
        <time>2000-01-01T00:00:00Z</time>
      </trkpt>
      <trkpt lat="47.58839" lon="6.60639">
        <ele>404.01797657115</ele>
        <time>2000-01-01T00:00:00Z</time>
      </trkpt>
      <trkpt lat="47.58835" lon="6.60639">
        <ele>404.5</ele>
        <time>2000-01-01T00:00:00Z</time>
      </trkpt>
      <trkpt lat="47.58809" lon="6.60635">
        <ele>408.52</ele>
        <time>2000-01-01T00:00:00Z</time>
      </trkpt>
      <trkpt lat="47.58797" lon="6.60634">
        <ele>410.50616854275</ele>
        <time>2000-01-01T00:00:00Z</time>
      </trkpt>
      <trkpt lat="47.58782" lon="6.60634">
        <ele>413.16</ele>
        <time>2000-01-01T00:00:00Z</time>
      </trkpt>
      <trkpt lat="47.58755" lon="6.60634">
        <ele>417.08</ele>
        <time>2000-01-01T00:00:00Z</time>
      </trkpt>
      <trkpt lat="47.58742" lon="6.60634">
        <ele>417.56308750047</ele>
        <time>2000-01-01T00:00:00Z</time>
      </trkpt>
      <trkpt lat="47.58728" lon="6.60641">
        <ele>418.12</ele>
        <time>2000-01-01T00:00:00Z</time>
      </trkpt>
      <trkpt lat="47.58703" lon="6.60654">
        <ele>417.73</ele>
        <time>2000-01-01T00:00:00Z</time>
      </trkpt>
      <trkpt lat="47.58672" lon="6.6067">
        <ele>417.42803657713</ele>
        <time>2000-01-01T00:00:00Z</time>
      </trkpt>
      <trkpt lat="47.58651" lon="6.6067">
        <ele>417.23</ele>
        <time>2000-01-01T00:00:00Z</time>
      </trkpt>
      <trkpt lat="47.58627" lon="6.6067">
        <ele>418.58476671017</ele>
        <time>2000-01-01T00:00:00Z</time>
      </trkpt>
      <trkpt lat="47.58624" lon="6.60673">
        <ele>418.78</ele>
        <time>2000-01-01T00:00:00Z</time>
      </trkpt>
      <trkpt lat="47.58623" lon="6.60674">
        <ele>418.91382858719</ele>
        <time>2000-01-01T00:00:00Z</time>
      </trkpt>
      <trkpt lat="47.58603" lon="6.60697">
        <ele>421.32</ele>
        <time>2000-01-01T00:00:00Z</time>
      </trkpt>
      <trkpt lat="47.58598" lon="6.60703">
        <ele>421.97208933135</ele>
        <time>2000-01-01T00:00:00Z</time>
      </trkpt>
      <trkpt lat="47.58587" lon="6.60709">
        <ele>423.21327157031</ele>
        <time>2000-01-01T00:00:00Z</time>
      </trkpt>
      <trkpt lat="47.58578" lon="6.6071">
        <ele>424.18</ele>
        <time>2000-01-01T00:00:00Z</time>
      </trkpt>
      <trkpt lat="47.58572" lon="6.60711">
        <ele>424.89816040973</ele>
        <time>2000-01-01T00:00:00Z</time>
      </trkpt>
      <trkpt lat="47.58551" lon="6.60712">
        <ele>427.45</ele>
        <time>2000-01-01T00:00:00Z</time>
      </trkpt>
      <trkpt lat="47.58539" lon="6.60712">
        <ele>428.67364279982</ele>
        <time>2000-01-01T00:00:00Z</time>
      </trkpt>
      <trkpt lat="47.58524" lon="6.60716">
        <ele>430.22</ele>
        <time>2000-01-01T00:00:00Z</time>
      </trkpt>
      <trkpt lat="47.58523" lon="6.60716">
        <ele>430.32420960616</ele>
        <time>2000-01-01T00:00:00Z</time>
      </trkpt>
      <trkpt lat="47.58508" lon="6.60723">
        <ele>431.75074675363</ele>
        <time>2000-01-01T00:00:00Z</time>
      </trkpt>
      <trkpt lat="47.58498" lon="6.60725">
        <ele>432.67</ele>
        <time>2000-01-01T00:00:00Z</time>
      </trkpt>
      <trkpt lat="47.58489" lon="6.60726">
        <ele>433.3744232403</ele>
        <time>2000-01-01T00:00:00Z</time>
      </trkpt>
      <trkpt lat="47.5848" lon="6.6073">
        <ele>434.11194830141</ele>
        <time>2000-01-01T00:00:00Z</time>
      </trkpt>
      <trkpt lat="47.58475" lon="6.6073">
        <ele>434.5044284588</ele>
        <time>2000-01-01T00:00:00Z</time>
      </trkpt>
      <trkpt lat="47.58473" lon="6.60732">
        <ele>434.6937942711</ele>
        <time>2000-01-01T00:00:00Z</time>
      </trkpt>
      <trkpt lat="47.58472" lon="6.60732">
        <ele>434.79</ele>
        <time>2000-01-01T00:00:00Z</time>
      </trkpt>
      <trkpt lat="47.58458" lon="6.60735">
        <ele>434.87240754578</ele>
        <time>2000-01-01T00:00:00Z</time>
      </trkpt>
      <trkpt lat="47.58444" lon="6.60741">
        <ele>434.9587425469</ele>
        <time>2000-01-01T00:00:00Z</time>
      </trkpt>
      <trkpt lat="47.58437" lon="6.60741">
        <ele>435.00021214843</ele>
        <time>2000-01-01T00:00:00Z</time>
      </trkpt>
      <trkpt lat="47.58424" lon="6.60745">
        <ele>435.07886826244</ele>
        <time>2000-01-01T00:00:00Z</time>
      </trkpt>
      <trkpt lat="47.5842" lon="6.60745">
        <ele>435.1025651776</ele>
        <time>2000-01-01T00:00:00Z</time>
      </trkpt>
      <trkpt lat="47.58419" lon="6.60744">
        <ele>435.11</ele>
        <time>2000-01-01T00:00:00Z</time>
      </trkpt>
      <trkpt lat="47.58402" lon="6.60712">
        <ele>434.17</ele>
        <time>2000-01-01T00:00:00Z</time>
      </trkpt>
      <trkpt lat="47.58385" lon="6.60681">
        <ele>433.37</ele>
        <time>2000-01-01T00:00:00Z</time>
      </trkpt>
      <trkpt lat="47.58351" lon="6.60619">
        <ele>432.24</ele>
        <time>2000-01-01T00:00:00Z</time>
      </trkpt>
      <trkpt lat="47.58343" lon="6.60604">
        <ele>431.30507382424</ele>
        <time>2000-01-01T00:00:00Z</time>
      </trkpt>
      <trkpt lat="47.58338" lon="6.60589">
        <ele>430.49858088545</ele>
        <time>2000-01-01T00:00:00Z</time>
      </trkpt>
      <trkpt lat="47.58336" lon="6.60586">
        <ele>430.31</ele>
        <time>2000-01-01T00:00:00Z</time>
      </trkpt>
      <trkpt lat="47.58329" lon="6.60571">
        <ele>429.27538728916</ele>
        <time>2000-01-01T00:00:00Z</time>
      </trkpt>
      <trkpt lat="47.58328" lon="6.60564">
        <ele>428.87509294583</ele>
        <time>2000-01-01T00:00:00Z</time>
      </trkpt>
      <trkpt lat="47.58323" lon="6.60552">
        <ele>428.07</ele>
        <time>2000-01-01T00:00:00Z</time>
      </trkpt>
      <trkpt lat="47.58313" lon="6.60526">
        <ele>426.4119454757</ele>
        <time>2000-01-01T00:00:00Z</time>
      </trkpt>
      <trkpt lat="47.5831" lon="6.60526">
        <ele>426.16312786647</ele>
        <time>2000-01-01T00:00:00Z</time>
      </trkpt>
      <trkpt lat="47.58307" lon="6.60523">
        <ele>425.83</ele>
        <time>2000-01-01T00:00:00Z</time>
      </trkpt>
      <trkpt lat="47.58285" lon="6.605">
        <ele>423.31609696135</ele>
        <time>2000-01-01T00:00:00Z</time>
      </trkpt>
      <trkpt lat="47.58267" lon="6.60474">
        <ele>420.77885926401</ele>
        <time>2000-01-01T00:00:00Z</time>
      </trkpt>
      <trkpt lat="47.58266" lon="6.60471">
        <ele>420.54</ele>
        <time>2000-01-01T00:00:00Z</time>
      </trkpt>
      <trkpt lat="47.58263" lon="6.60465">
        <ele>420.13846460819</ele>
        <time>2000-01-01T00:00:00Z</time>
      </trkpt>
      <trkpt lat="47.58247" lon="6.60442">
        <ele>418.33</ele>
        <time>2000-01-01T00:00:00Z</time>
      </trkpt>
      <trkpt lat="47.58238" lon="6.60429">
        <ele>417.32434909027</ele>
        <time>2000-01-01T00:00:00Z</time>
      </trkpt>
      <trkpt lat="47.58228" lon="6.60414">
        <ele>416.2</ele>
        <time>2000-01-01T00:00:00Z</time>
      </trkpt>
      <trkpt lat="47.58226" lon="6.6041">
        <ele>415.94457418377</ele>
        <time>2000-01-01T00:00:00Z</time>
      </trkpt>
      <trkpt lat="47.58221" lon="6.60398">
        <ele>415.2083199456</ele>
        <time>2000-01-01T00:00:00Z</time>
      </trkpt>
      <trkpt lat="47.58212" lon="6.60381">
        <ele>414.11</ele>
        <time>2000-01-01T00:00:00Z</time>
      </trkpt>
      <trkpt lat="47.5821" lon="6.60377">
        <ele>413.61955147249</ele>
        <time>2000-01-01T00:00:00Z</time>
      </trkpt>
      <trkpt lat="47.58199" lon="6.60353">
        <ele>411.05413150438</ele>
        <time>2000-01-01T00:00:00Z</time>
      </trkpt>
      <trkpt lat="47.58196" lon="6.60349">
        <ele>410.57</ele>
        <time>2000-01-01T00:00:00Z</time>
      </trkpt>
      <trkpt lat="47.58193" lon="6.60344">
        <ele>409.80447942578</ele>
        <time>2000-01-01T00:00:00Z</time>
      </trkpt>
      <trkpt lat="47.58183" lon="6.6032">
        <ele>406.79603825092</ele>
        <time>2000-01-01T00:00:00Z</time>
      </trkpt>
      <trkpt lat="47.58181" lon="6.60316">
        <ele>406.3</ele>
        <time>2000-01-01T00:00:00Z</time>
      </trkpt>
      <trkpt lat="47.58164" lon="6.60285">
        <ele>403.37</ele>
        <time>2000-01-01T00:00:00Z</time>
      </trkpt>
      <trkpt lat="47.58131" lon="6.60222">
        <ele>402.36</ele>
        <time>2000-01-01T00:00:00Z</time>
      </trkpt>
      <trkpt lat="47.58124" lon="6.60209">
        <ele>402.55844453564</ele>
        <time>2000-01-01T00:00:00Z</time>
      </trkpt>
      <trkpt lat="47.58113" lon="6.60193">
        <ele>402.84</ele>
        <time>2000-01-01T00:00:00Z</time>
      </trkpt>
      <trkpt lat="47.58111" lon="6.6019">
        <ele>402.88646600941</ele>
        <time>2000-01-01T00:00:00Z</time>
      </trkpt>
      <trkpt lat="47.58098" lon="6.60174">
        <ele>403.21178213766</ele>
        <time>2000-01-01T00:00:00Z</time>
      </trkpt>
      <trkpt lat="47.58093" lon="6.60165">
        <ele>403.36</ele>
        <time>2000-01-01T00:00:00Z</time>
      </trkpt>
      <trkpt lat="47.58089" lon="6.60157">
        <ele>403.31669876108</ele>
        <time>2000-01-01T00:00:00Z</time>
      </trkpt>
      <trkpt lat="47.58084" lon="6.60151">
        <ele>403.27620770666</ele>
        <time>2000-01-01T00:00:00Z</time>
      </trkpt>
      <trkpt lat="47.58066" lon="6.6012">
        <ele>403.10253528493</ele>
        <time>2000-01-01T00:00:00Z</time>
      </trkpt>
      <trkpt lat="47.58061" lon="6.60117">
        <ele>403.06858282024</ele>
        <time>2000-01-01T00:00:00Z</time>
      </trkpt>
      <trkpt lat="47.58056" lon="6.60109">
        <ele>403.02</ele>
        <time>2000-01-01T00:00:00Z</time>
      </trkpt>
      <trkpt lat="47.5805" lon="6.60099">
        <ele>402.67669027156</ele>
        <time>2000-01-01T00:00:00Z</time>
      </trkpt>
      <trkpt lat="47.58045" lon="6.60096">
        <ele>402.46298937245</ele>
        <time>2000-01-01T00:00:00Z</time>
      </trkpt>
      <trkpt lat="47.58041" lon="6.60091">
        <ele>402.25569981898</ele>
        <time>2000-01-01T00:00:00Z</time>
      </trkpt>
      <trkpt lat="47.58036" lon="6.60082">
        <ele>401.95</ele>
        <time>2000-01-01T00:00:00Z</time>
      </trkpt>
      <trkpt lat="47.58022" lon="6.60058">
        <ele>400.92864936729</ele>
        <time>2000-01-01T00:00:00Z</time>
      </trkpt>
      <trkpt lat="47.58019" lon="6.60054">
        <ele>400.73741984522</ele>
        <time>2000-01-01T00:00:00Z</time>
      </trkpt>
      <trkpt lat="47.58018" lon="6.60052">
        <ele>400.67</ele>
        <time>2000-01-01T00:00:00Z</time>
      </trkpt>
      <trkpt lat="47.58014" lon="6.60044">
        <ele>400.40402899987</ele>
        <time>2000-01-01T00:00:00Z</time>
      </trkpt>
      <trkpt lat="47.58011" lon="6.6004">
        <ele>400.25014888867</ele>
        <time>2000-01-01T00:00:00Z</time>
      </trkpt>
      <trkpt lat="47.58004" lon="6.60019">
        <ele>399.64754667399</ele>
        <time>2000-01-01T00:00:00Z</time>
      </trkpt>
      <trkpt lat="47.57984" lon="6.59992">
        <ele>398.93</ele>
        <time>2000-01-01T00:00:00Z</time>
      </trkpt>
      <trkpt lat="47.57964" lon="6.59965">
        <ele>398.14</ele>
        <time>2000-01-01T00:00:00Z</time>
      </trkpt>
      <trkpt lat="47.57944" lon="6.59938">
        <ele>396.96</ele>
        <time>2000-01-01T00:00:00Z</time>
      </trkpt>
      <trkpt lat="47.57924" lon="6.59911">
        <ele>395.71</ele>
        <time>2000-01-01T00:00:00Z</time>
      </trkpt>
      <trkpt lat="47.57884" lon="6.59857">
        <ele>395.3</ele>
        <time>2000-01-01T00:00:00Z</time>
      </trkpt>
      <trkpt lat="47.5787" lon="6.59838">
        <ele>395.18368372054</ele>
        <time>2000-01-01T00:00:00Z</time>
      </trkpt>
      <trkpt lat="47.57842" lon="6.59807">
        <ele>394.97</ele>
        <time>2000-01-01T00:00:00Z</time>
      </trkpt>
      <trkpt lat="47.57821" lon="6.59782">
        <ele>394.33</ele>
        <time>2000-01-01T00:00:00Z</time>
      </trkpt>
      <trkpt lat="47.57799" lon="6.59758">
        <ele>393.26</ele>
        <time>2000-01-01T00:00:00Z</time>
      </trkpt>
      <trkpt lat="47.57778" lon="6.59734">
        <ele>391.25</ele>
        <time>2000-01-01T00:00:00Z</time>
      </trkpt>
      <trkpt lat="47.57763" lon="6.59717">
        <ele>389.48200137006</ele>
        <time>2000-01-01T00:00:00Z</time>
      </trkpt>
      <trkpt lat="47.57755" lon="6.59716">
        <ele>388.68</ele>
        <time>2000-01-01T00:00:00Z</time>
      </trkpt>
      <trkpt lat="47.57728" lon="6.59712">
        <ele>386.35</ele>
        <time>2000-01-01T00:00:00Z</time>
      </trkpt>
      <trkpt lat="47.57701" lon="6.59708">
        <ele>384.38</ele>
        <time>2000-01-01T00:00:00Z</time>
      </trkpt>
      <trkpt lat="47.57674" lon="6.59704">
        <ele>382.4</ele>
        <time>2000-01-01T00:00:00Z</time>
      </trkpt>
      <trkpt lat="47.57647" lon="6.597">
        <ele>380.77</ele>
        <time>2000-01-01T00:00:00Z</time>
      </trkpt>
      <trkpt lat="47.5762" lon="6.59696">
        <ele>378.98</ele>
        <time>2000-01-01T00:00:00Z</time>
      </trkpt>
      <trkpt lat="47.57593" lon="6.59692">
        <ele>376.87</ele>
        <time>2000-01-01T00:00:00Z</time>
      </trkpt>
      <trkpt lat="47.57567" lon="6.59688">
        <ele>374.62</ele>
        <time>2000-01-01T00:00:00Z</time>
      </trkpt>
      <trkpt lat="47.5754" lon="6.59684">
        <ele>371.74</ele>
        <time>2000-01-01T00:00:00Z</time>
      </trkpt>
      <trkpt lat="47.57513" lon="6.5968">
        <ele>367.79</ele>
        <time>2000-01-01T00:00:00Z</time>
      </trkpt>
      <trkpt lat="47.57508" lon="6.59679">
        <ele>366.98875296604</ele>
        <time>2000-01-01T00:00:00Z</time>
      </trkpt>
      <trkpt lat="47.57486" lon="6.59672">
        <ele>363.27</ele>
        <time>2000-01-01T00:00:00Z</time>
      </trkpt>
      <trkpt lat="47.5746" lon="6.59663">
        <ele>358.11</ele>
        <time>2000-01-01T00:00:00Z</time>
      </trkpt>
      <trkpt lat="47.57434" lon="6.59654">
        <ele>352.99</ele>
        <time>2000-01-01T00:00:00Z</time>
      </trkpt>
      <trkpt lat="47.57425" lon="6.59651">
        <ele>351.02889547291</ele>
        <time>2000-01-01T00:00:00Z</time>
      </trkpt>
      <trkpt lat="47.57407" lon="6.59648">
        <ele>347.03</ele>
        <time>2000-01-01T00:00:00Z</time>
      </trkpt>
      <trkpt lat="47.57381" lon="6.59644">
        <ele>340.71180741615</ele>
        <time>2000-01-01T00:00:00Z</time>
      </trkpt>
      <trkpt lat="47.57354" lon="6.59637">
        <ele>335.2</ele>
        <time>2000-01-01T00:00:00Z</time>
      </trkpt>
      <trkpt lat="47.57333" lon="6.59632">
        <ele>331.95857864052</ele>
        <time>2000-01-01T00:00:00Z</time>
      </trkpt>
      <trkpt lat="47.57328" lon="6.59627">
        <ele>330.99</ele>
        <time>2000-01-01T00:00:00Z</time>
      </trkpt>
      <trkpt lat="47.57306" lon="6.59603">
        <ele>328.12</ele>
        <time>2000-01-01T00:00:00Z</time>
      </trkpt>
      <trkpt lat="47.57288" lon="6.59583">
        <ele>326.56244655924</ele>
        <time>2000-01-01T00:00:00Z</time>
      </trkpt>
      <trkpt lat="47.57285" lon="6.59578">
        <ele>326.26</ele>
        <time>2000-01-01T00:00:00Z</time>
      </trkpt>
      <trkpt lat="47.57269" lon="6.59546">
        <ele>325.12</ele>
        <time>2000-01-01T00:00:00Z</time>
      </trkpt>
      <trkpt lat="47.57268" lon="6.59545">
        <ele>325.09148864522</ele>
        <time>2000-01-01T00:00:00Z</time>
      </trkpt>
      <trkpt lat="47.57254" lon="6.59513">
        <ele>324.43</ele>
        <time>2000-01-01T00:00:00Z</time>
      </trkpt>
      <trkpt lat="47.5724" lon="6.59479">
        <ele>323.77</ele>
        <time>2000-01-01T00:00:00Z</time>
      </trkpt>
      <trkpt lat="47.5723" lon="6.59456">
        <ele>323.33968294637</ele>
        <time>2000-01-01T00:00:00Z</time>
      </trkpt>
      <trkpt lat="47.57225" lon="6.59446">
        <ele>323.13</ele>
        <time>2000-01-01T00:00:00Z</time>
      </trkpt>
      <trkpt lat="47.57195" lon="6.59391">
        <ele>322.39506631078</ele>
        <time>2000-01-01T00:00:00Z</time>
      </trkpt>
      <trkpt lat="47.57191" lon="6.59383">
        <ele>322.29</ele>
        <time>2000-01-01T00:00:00Z</time>
      </trkpt>
      <trkpt lat="47.57182" lon="6.59366">
        <ele>321.44482986601</ele>
        <time>2000-01-01T00:00:00Z</time>
      </trkpt>
      <trkpt lat="47.57171" lon="6.59356">
        <ele>320.72</ele>
        <time>2000-01-01T00:00:00Z</time>
      </trkpt>
      <trkpt lat="47.57148" lon="6.59335">
        <ele>318.44095767261</ele>
        <time>2000-01-01T00:00:00Z</time>
      </trkpt>
      <trkpt lat="47.57123" lon="6.59322">
        <ele>316.09</ele>
        <time>2000-01-01T00:00:00Z</time>
      </trkpt>
      <trkpt lat="47.57098" lon="6.59309">
        <ele>314.36</ele>
        <time>2000-01-01T00:00:00Z</time>
      </trkpt>
      <trkpt lat="47.57079" lon="6.59299">
        <ele>313.89611615633</ele>
        <time>2000-01-01T00:00:00Z</time>
      </trkpt>
      <trkpt lat="47.57072" lon="6.59297">
        <ele>313.72</ele>
        <time>2000-01-01T00:00:00Z</time>
      </trkpt>
      <trkpt lat="47.57059" lon="6.59294">
        <ele>313.81991948939</ele>
        <time>2000-01-01T00:00:00Z</time>
      </trkpt>
      <trkpt lat="47.57045" lon="6.59294">
        <ele>313.93</ele>
        <time>2000-01-01T00:00:00Z</time>
      </trkpt>
      <trkpt lat="47.57035" lon="6.59294">
        <ele>314.24706402748</ele>
        <time>2000-01-01T00:00:00Z</time>
      </trkpt>
      <trkpt lat="47.57018" lon="6.59297">
        <ele>314.8</ele>
        <time>2000-01-01T00:00:00Z</time>
      </trkpt>
      <trkpt lat="47.56968" lon="6.59304">
        <ele>315.84034479369</ele>
        <time>2000-01-01T00:00:00Z</time>
      </trkpt>
      <trkpt lat="47.56964" lon="6.59303">
        <ele>315.92</ele>
        <time>2000-01-01T00:00:00Z</time>
      </trkpt>
      <trkpt lat="47.56938" lon="6.59295">
        <ele>317.83</ele>
        <time>2000-01-01T00:00:00Z</time>
      </trkpt>
      <trkpt lat="47.56911" lon="6.59288">
        <ele>320.02</ele>
        <time>2000-01-01T00:00:00Z</time>
      </trkpt>
      <trkpt lat="47.56885" lon="6.5928">
        <ele>321.87</ele>
        <time>2000-01-01T00:00:00Z</time>
      </trkpt>
      <trkpt lat="47.56868" lon="6.59275">
        <ele>323.05555016843</ele>
        <time>2000-01-01T00:00:00Z</time>
      </trkpt>
      <trkpt lat="47.56858" lon="6.59273">
        <ele>323.75</ele>
        <time>2000-01-01T00:00:00Z</time>
      </trkpt>
      <trkpt lat="47.56832" lon="6.59266">
        <ele>326.1</ele>
        <time>2000-01-01T00:00:00Z</time>
      </trkpt>
      <trkpt lat="47.56805" lon="6.5926">
        <ele>329.11</ele>
        <time>2000-01-01T00:00:00Z</time>
      </trkpt>
      <trkpt lat="47.56798" lon="6.59258">
        <ele>329.83224415542</ele>
        <time>2000-01-01T00:00:00Z</time>
      </trkpt>
      <trkpt lat="47.5678" lon="6.59245">
        <ele>331.92</ele>
        <time>2000-01-01T00:00:00Z</time>
      </trkpt>
      <trkpt lat="47.56756" lon="6.59227">
        <ele>333.93</ele>
        <time>2000-01-01T00:00:00Z</time>
      </trkpt>
      <trkpt lat="47.56732" lon="6.59209">
        <ele>335.1</ele>
        <time>2000-01-01T00:00:00Z</time>
      </trkpt>
      <trkpt lat="47.56708" lon="6.59191">
        <ele>335.28</ele>
        <time>2000-01-01T00:00:00Z</time>
      </trkpt>
      <trkpt lat="47.56699" lon="6.59184">
        <ele>335.21234361768</ele>
        <time>2000-01-01T00:00:00Z</time>
      </trkpt>
      <trkpt lat="47.56697" lon="6.59172">
        <ele>335.15470024781</ele>
        <time>2000-01-01T00:00:00Z</time>
      </trkpt>
      <trkpt lat="47.56668" lon="6.5909">
        <ele>334.72</ele>
        <time>2000-01-01T00:00:00Z</time>
      </trkpt>
      <trkpt lat="47.56655" lon="6.59054">
        <ele>334.03</ele>
        <time>2000-01-01T00:00:00Z</time>
      </trkpt>
      <trkpt lat="47.56645" lon="6.59026">
        <ele>333.78332395893</ele>
        <time>2000-01-01T00:00:00Z</time>
      </trkpt>
      <trkpt lat="47.56642" lon="6.59019">
        <ele>333.72</ele>
        <time>2000-01-01T00:00:00Z</time>
      </trkpt>
      <trkpt lat="47.56615" lon="6.5895">
        <ele>333.64</ele>
        <time>2000-01-01T00:00:00Z</time>
      </trkpt>
      <trkpt lat="47.56612" lon="6.58943">
        <ele>333.70481528045</ele>
        <time>2000-01-01T00:00:00Z</time>
      </trkpt>
      <trkpt lat="47.566" lon="6.58916">
        <ele>333.96</ele>
        <time>2000-01-01T00:00:00Z</time>
      </trkpt>
      <trkpt lat="47.56586" lon="6.58882">
        <ele>334.65</ele>
        <time>2000-01-01T00:00:00Z</time>
      </trkpt>
      <trkpt lat="47.56585" lon="6.5888">
        <ele>334.66611506558</ele>
        <time>2000-01-01T00:00:00Z</time>
      </trkpt>
      <trkpt lat="47.5657" lon="6.58817">
        <ele>335.06669115679</ele>
        <time>2000-01-01T00:00:00Z</time>
      </trkpt>
      <trkpt lat="47.56567" lon="6.58785">
        <ele>335.26040669421</ele>
        <time>2000-01-01T00:00:00Z</time>
      </trkpt>
      <trkpt lat="47.56566" lon="6.58767">
        <ele>335.37</ele>
        <time>2000-01-01T00:00:00Z</time>
      </trkpt>
      <trkpt lat="47.56565" lon="6.58751">
        <ele>335.70265546255</ele>
        <time>2000-01-01T00:00:00Z</time>
      </trkpt>
      <trkpt lat="47.56568" lon="6.58727">
        <ele>336.21</ele>
        <time>2000-01-01T00:00:00Z</time>
      </trkpt>
      <trkpt lat="47.56569" lon="6.58714">
        <ele>336.23657547207</ele>
        <time>2000-01-01T00:00:00Z</time>
      </trkpt>
      <trkpt lat="47.56581" lon="6.58672">
        <ele>336.32773510238</ele>
        <time>2000-01-01T00:00:00Z</time>
      </trkpt>
      <trkpt lat="47.56585" lon="6.58652">
        <ele>336.37</ele>
        <time>2000-01-01T00:00:00Z</time>
      </trkpt>
      <trkpt lat="47.56586" lon="6.58646">
        <ele>336.37294243902</ele>
        <time>2000-01-01T00:00:00Z</time>
      </trkpt>
      <trkpt lat="47.56587" lon="6.58612">
        <ele>336.39</ele>
        <time>2000-01-01T00:00:00Z</time>
      </trkpt>
      <trkpt lat="47.56588" lon="6.58581">
        <ele>336.32818211367</ele>
        <time>2000-01-01T00:00:00Z</time>
      </trkpt>
      <trkpt lat="47.56588" lon="6.58572">
        <ele>336.31</ele>
        <time>2000-01-01T00:00:00Z</time>
      </trkpt>
      <trkpt lat="47.56586" lon="6.58532">
        <ele>336.13</ele>
        <time>2000-01-01T00:00:00Z</time>
      </trkpt>
      <trkpt lat="47.56585" lon="6.58522">
        <ele>336.17892890425</ele>
        <time>2000-01-01T00:00:00Z</time>
      </trkpt>
      <trkpt lat="47.56578" lon="6.58476">
        <ele>336.40865782687</ele>
        <time>2000-01-01T00:00:00Z</time>
      </trkpt>
      <trkpt lat="47.56569" lon="6.58457">
        <ele>336.52</ele>
        <time>2000-01-01T00:00:00Z</time>
      </trkpt>
      <trkpt lat="47.56561" lon="6.58439">
        <ele>336.84841526655</ele>
        <time>2000-01-01T00:00:00Z</time>
      </trkpt>
      <trkpt lat="47.56554" lon="6.58425">
        <ele>337.12</ele>
        <time>2000-01-01T00:00:00Z</time>
      </trkpt>
      <trkpt lat="47.56537" lon="6.58393">
        <ele>339.52</ele>
        <time>2000-01-01T00:00:00Z</time>
      </trkpt>
      <trkpt lat="47.56521" lon="6.58361">
        <ele>339.52</ele>
        <time>2000-01-01T00:00:00Z</time>
      </trkpt>
      <trkpt lat="47.5652" lon="6.58359">
        <ele>339.29291488458</ele>
        <time>2000-01-01T00:00:00Z</time>
      </trkpt>
      <trkpt lat="47.56542" lon="6.5834">
        <ele>335.55</ele>
        <time>2000-01-01T00:00:00Z</time>
      </trkpt>
    </trkseg>
  </trk>
</gpx>